DW8769 Weather Reports


time (UTC)temp
C
wind
direction
speed
KPH
gust
KPH
rain 1hr
cm
rain 24hr
cm
rain mn
cm
humidity
%
barometer
mb
20260508070805 15 251 6.4 14.5 0.00 2.21 0.00 78 1011.6
20260508070705 15 310 6.4 14.5 0.00 2.21 0.00 78 1011.6
20260508070607 15 340 6.4 14.5 0.00 2.21 0.00 78 1011.6
20260508070508 15 56 4.8 14.5 0.00 2.21 0.00 78 1011.5
20260508070306 15 296 4.8 14.5 0.00 2.21 0.00 78 1011.6
20260508070207 15 245 4.8 14.5 0.00 2.21 0.00 78 1011.6
20260508070107 15 320 4.8 14.5 0.00 2.21 0.00 78 1011.6
20260508070012 15 335 4.8 14.5 0.00 2.21 0.00 78 1011.6
20260508065808 15 335 4.8 14.5 0.00 2.21 0.00 78 1011.5
20260508065707 15 325 4.8 9.7 0.00 2.21 0.00 79 1011.5
20260508065607 15 262 4.8 9.7 0.00 2.21 0.00 79 1011.5
20260508065509 15 283 4.8 12.9 0.00 2.21 0.00 79 1011.5
20260508065207 15 325 6.4 14.5 0.00 2.21 0.00 78 1011.5
20260508065108 15 267 6.4 14.5 0.00 2.21 0.00 78 1011.5
20260508065008 15 254 6.4 14.5 0.00 2.21 0.00 78 1011.5
20260508064906 15 311 6.4 14.5 0.00 2.21 0.00 78 1011.5
20260508064805 15 247 6.4 14.5 0.00 2.21 0.00 78 1011.5
20260508064707 15 179 6.4 14.5 0.00 2.21 0.00 78 1011.5
20260508064607 15 267 6.4 14.5 0.00 2.21 0.00 78 1011.5
20260508064407 15 299 4.8 12.9 0.00 2.21 0.00 77 1011.5
20260508064206 15 303 6.4 14.5 0.00 2.21 0.00 77 1011.5
20260508064107 15 214 6.4 14.5 0.00 2.21 0.00 77 1011.4
20260508064014 15 5 6.4 14.5 0.00 2.21 0.00 77 1011.4
20260508063807 15 325 6.4 14.5 0.00 2.21 0.00 77 1011.4
20260508063707 15 279 6.4 14.5 0.00 2.21 0.00 77 1011.4
20260508063508 15 335 8.0 16.1 0.00 2.21 0.00 76 1011.3
20260508063407 15 21 8.0 16.1 0.00 2.21 0.00 76 1011.3
20260508063305 15 271 8.0 16.1 0.00 2.21 0.00 76 1011.3
20260508063206 15 330 8.0 16.1 0.00 2.21 0.00 77 1011.3
20260508063106 15 330 8.0 16.1 0.00 2.21 0.00 77 1011.2
20260508063008 15 242 6.4 16.1 0.00 2.21 0.00 77 1011.1
20260508062906 15 257 6.4 16.1 0.00 2.21 0.00 77 1011.1
20260508062806 15 306 6.4 16.1 0.00 2.21 0.00 77 1011.1
20260508062706 15 320 6.4 16.1 0.00 2.21 0.00 77 1011.1
20260508062605 15 279 8.0 16.1 0.00 2.21 0.00 78 1011.1
20260508062408 15 312 8.0 16.1 0.00 2.21 0.00 78 1011.0
20260508062308 15 335 6.4 16.1 0.00 2.21 0.00 78 1011.0
20260508062207 15 325 6.4 14.5 0.00 2.21 0.00 78 1011.0
20260508062107 15 335 6.4 14.5 0.00 2.21 0.00 79 1011.0
20260508061907 15 304 6.4 14.5 0.00 2.21 0.00 79 1011.1
20260508061706 15 352 4.8 12.9 0.00 2.21 0.00 79 1011.2
20260508061609 15 330 4.8 12.9 0.00 2.21 0.00 79 1011.2
20260508061508 15 317 4.8 12.9 0.00 2.21 0.00 79 1011.2
20260508061409 15 335 4.8 9.7 0.00 2.21 0.00 79 1011.2
20260508061306 15 325 4.8 8.0 0.00 2.21 0.00 79 1011.3
20260508061207 15 296 4.8 8.0 0.00 2.21 0.00 79 1011.2
20260508061107 15 339 4.8 8.0 0.00 2.21 0.00 79 1011.2
20260508061007 15 315 3.2 8.0 0.00 2.21 0.00 79 1011.2
20260508060807 15 343 4.8 12.9 0.00 2.21 0.00 79 1011.2
20260508060706 15 283 4.8 12.9 0.00 2.21 0.00 80 1011.3
20260508060507 15 353 3.2 12.9 0.00 2.21 0.00 79 1011.3
20260508060405 15 236 3.2 12.9 0.00 2.21 0.00 80 1011.3
20260508060306 15 353 3.2 12.9 0.00 2.21 0.00 80 1011.3
20260508060205 15 249 3.2 12.9 0.00 2.21 0.00 80 1011.2
20260508060106 15 256 3.2 12.9 0.00 2.21 0.00 80 1011.1
20260508060007 15 228 1.6 12.9 0.00 2.21 0.00 80 1011.1
20260508055906 15 283 1.6 12.9 0.00 2.21 0.00 80 1011.1
20260508055804 15 223 1.6 4.8 0.00 2.21 0.00 80 1011.1
20260508055705 15 252 3.2 4.8 0.00 2.21 0.00 79 1011.1
20260508055606 15 285 3.2 6.4 0.00 2.21 0.00 79 1011.2
20260508055506 15 259 3.2 9.7 0.00 2.21 0.00 79 1011.2
20260508055009 15 299 6.4 9.7 0.00 2.21 0.00 79 1011.1
20260508054907 15 285 6.4 9.7 0.00 2.21 0.00 79 1011.2
20260508054806 15 2 6.4 9.7 0.00 2.21 0.00 79 1011.1
20260508054705 15 358 6.4 12.9 0.00 2.21 0.00 79 1011.0
20260508054507 15 274 6.4 12.9 0.00 2.21 0.00 79 1011.0
20260508054406 15 320 6.4 12.9 0.00 2.21 0.00 79 1011.0
20260508054305 15 341 4.8 12.9 0.00 2.21 0.00 79 1010.9
20260508054206 15 259 4.8 12.9 0.00 2.21 0.00 79 1010.9
20260508054107 15 318 4.8 12.9 0.00 2.21 0.00 79 1010.9
20260508054009 15 353 4.8 12.9 0.00 2.21 0.00 79 1010.8
20260508053906 15 316 4.8 12.9 0.00 2.21 0.00 79 1010.9
20260508053806 15 339 4.8 12.9 0.00 2.21 0.00 79 1010.8
20260508053605 15 231 4.8 9.7 0.00 2.21 0.00 79 1010.7
20260508053507 15 241 4.8 9.7 0.00 2.21 0.00 79 1010.8
20260508053405 15 227 4.8 9.7 0.00 2.21 0.00 79 1010.7
20260508053305 15 352 4.8 9.7 0.00 2.21 0.00 79 1010.7
20260508053205 15 6 4.8 9.7 0.00 2.21 0.00 79 1010.7
20260508053106 14 335 4.8 9.7 0.00 2.21 0.00 79 1010.7
20260508053007 14 352 4.8 9.7 0.00 2.21 0.00 79 1010.6
20260508052906 14 215 4.8 9.7 0.00 2.21 0.00 80 1010.7
20260508052804 14 335 4.8 9.7 0.00 2.21 0.00 80 1010.7
20260508052707 14 330 4.8 9.7 0.00 2.21 0.00 80 1010.6
20260508052607 14 282 3.2 11.3 0.00 2.21 0.00 79 1010.7
20260508052405 15 311 3.2 9.7 0.00 2.21 0.00 79 1010.6
20260508052307 15 339 3.2 9.7 0.00 2.21 0.00 79 1010.6
20260508052104 15 235 4.8 9.7 0.00 2.21 0.00 78 1010.6
20260508052007 15 251 4.8 14.5 0.00 2.21 0.00 78 1010.6
20260508051905 15 237 6.4 14.5 0.00 2.21 0.00 78 1010.5
20260508051807 15 224 6.4 14.5 0.00 2.21 0.00 77 1010.6
20260508051705 15 330 6.4 14.5 0.00 2.21 0.00 77 1010.5
20260508051605 15 314 6.4 14.5 0.00 2.21 0.00 77 1010.4
20260508051305 15 251 6.4 14.5 0.00 2.21 0.00 77 1010.3
20260508051205 15 310 6.4 14.5 0.00 2.21 0.00 77 1010.4
20260508051106 15 289 4.8 14.5 0.00 2.21 0.00 78 1010.4
20260508051007 15 325 4.8 12.9 0.00 2.21 0.00 78 1010.4
20260508050906 15 34 4.8 12.9 0.00 2.21 0.00 78 1010.4
20260508050806 15 274 4.8 14.5 0.00 2.21 0.00 77 1010.3
20260508050704 15 330 4.8 14.5 0.00 2.21 0.00 77 1010.4
20260508050604 15 335 4.8 14.5 0.00 2.21 0.00 77 1010.4
20260508050508 15 206 4.8 14.5 0.00 2.21 0.00 77 1010.4
20260508050406 15 347 4.8 14.5 0.00 2.21 0.00 77 1010.4
20260508050306 15 272 4.8 14.5 0.00 2.21 0.00 77 1010.3
20260508050105 15 309 4.8 14.5 0.00 2.21 0.00 77 1010.3
20260508050008 15 341 6.4 14.5 0.00 2.21 0.00 78 1010.2
20260508045905 15 311 6.4 16.1 0.00 2.21 0.00 78 1010.3
20260508045805 15 245 6.4 17.7 0.00 2.21 0.00 77 1010.3
20260508045405 15 300 6.4 17.7 0.00 2.21 0.00 76 1010.3
20260508045307 15 286 8.0 17.7 0.00 2.21 0.00 76 1010.3
20260508045206 15 261 8.0 17.7 0.00 2.21 0.00 76 1010.3
20260508045104 15 273 8.0 17.7 0.00 2.21 0.00 76 1010.3
20260508045007 15 291 8.0 17.7 0.00 2.21 0.00 77 1010.2
20260508044806 15 339 8.0 16.1 0.00 2.21 0.00 76 1010.2
20260508044704 15 330 6.4 16.1 0.00 2.21 0.00 76 1010.2
20260508044605 15 247 6.4 16.1 0.00 2.21 0.00 76 1010.3
20260508044506 15 286 6.4 16.1 0.00 2.21 0.00 77 1010.2
20260508044406 15 291 6.4 16.1 0.00 2.21 0.00 77 1010.2
20260508044305 15 319 4.8 16.1 0.00 2.21 0.00 77 1010.2
20260508044206 15 279 4.8 16.1 0.00 2.21 0.00 77 1010.3
20260508044105 15 325 3.2 14.5 0.00 2.21 0.00 77 1010.3
20260508044007 15 269 3.2 12.9 0.00 2.21 0.00 77 1010.2
20260508043904 15 264 3.2 9.7 0.00 2.21 0.00 77 1010.3
20260508043804 15 309 4.8 12.9 0.00 2.21 0.00 77 1010.2
20260508043705 15 312 4.8 12.9 0.00 2.21 0.00 77 1010.3
20260508043606 15 343 4.8 12.9 0.00 2.21 0.00 77 1010.2
20260508043506 15 330 3.2 12.9 0.00 2.21 0.00 77 1010.2
20260508043404 15 210 4.8 12.9 0.00 2.21 0.00 77 1010.2
20260508043304 15 352 4.8 12.9 0.00 2.21 0.00 77 1010.2
20260508043206 15 237 4.8 12.9 0.00 2.21 0.00 77 1010.2
20260508043106 15 325 4.8 12.9 0.00 2.21 0.00 77 1010.2
20260508043007 15 239 4.8 12.9 0.00 2.21 0.00 77 1010.2
20260508042904 15 220 6.4 12.9 0.00 2.21 0.00 77 1010.2
20260508042805 15 346 6.4 17.7 0.00 2.21 0.00 76 1010.2
20260508042705 15 212 6.4 17.7 0.00 2.21 0.00 76 1010.2
20260508042606 15 356 8.0 17.7 0.00 2.21 0.00 76 1010.2
20260508042507 15 6 9.7 17.7 0.00 2.21 0.00 76 1010.2
20260508042405 15 306 9.7 17.7 0.00 2.21 0.00 76 1010.2
20260508042307 15 310 11.3 17.7 0.00 2.21 0.00 76 1010.1
20260508042207 15 313 11.3 17.7 0.00 2.21 0.00 76 1010.2
20260508042106 15 325 11.3 17.7 0.00 2.21 0.00 75 1010.1
20260508042006 15 325 11.3 17.7 0.00 2.21 0.00 75 1010.1
20260508041806 15 268 11.3 17.7 0.00 2.21 0.00 76 1010.2
20260508041705 15 318 12.9 17.7 0.00 2.21 0.00 76 1010.1
20260508041606 15 297 12.9 19.3 0.00 2.21 0.00 76 1010.1
20260508041404 15 318 11.3 19.3 0.00 2.21 0.00 76 1010.2
20260508041304 15 286 11.3 19.3 0.00 2.21 0.00 76 1010.1
20260508041204 15 290 11.3 19.3 0.00 2.21 0.00 76 1010.2
20260508041104 15 309 11.3 19.3 0.00 2.21 0.00 76 1010.2
20260508041007 15 318 11.3 19.3 0.00 2.21 0.00 76 1010.2
20260508040906 15 340 11.3 19.3 0.00 2.21 0.00 76 1010.2
20260508040805 15 302 9.7 19.3 0.00 2.21 0.00 76 1010.2
20260508040605 15 330 8.0 16.1 0.00 2.21 0.00 76 1010.2
20260508040507 15 352 8.0 16.1 0.00 2.21 0.00 76 1010.2
20260508040404 15 274 8.0 16.1 0.00 2.21 0.00 76 1010.3
20260508040306 15 320 8.0 16.1 0.00 2.21 0.00 76 1010.2
20260508040205 15 221 9.7 16.1 0.00 2.21 0.00 76 1010.2
20260508040104 15 339 9.7 16.1 0.00 2.21 0.00 76 1010.2
20260508040007 15 347 9.7 16.1 0.00 2.21 0.00 76 1010.1
20260508035904 15 340 9.7 16.1 0.00 2.21 0.00 76 1010.2
20260508035805 15 340 9.7 17.7 0.00 2.21 0.00 76 1010.1
20260508035705 15 185 9.7 17.7 0.00 2.21 0.00 76 1010.1
20260508035605 15 264 9.7 17.7 0.00 2.21 0.00 76 1010.2
20260508035507 15 346 9.7 17.7 0.00 2.21 0.00 76 1010.1
20260508035405 15 349 9.7 17.7 0.00 2.21 0.00 76 1010.1
20260508035306 15 291 9.7 17.7 0.00 2.21 0.00 76 1010.2
20260508035205 15 341 8.0 17.7 0.00 2.21 0.00 76 1010.2
20260508035104 15 275 8.0 17.7 0.00 2.21 0.00 76 1010.3
20260508035008 15 293 8.0 17.7 0.00 2.21 0.00 76 1010.2
20260508034905 15 299 6.4 16.1 0.00 2.21 0.00 76 1010.2
20260508034805 15 308 6.4 14.5 0.00 2.21 0.00 76 1010.2
20260508034706 15 308 6.4 14.5 0.00 2.21 0.00 76 1010.2
20260508034604 15 307 6.4 14.5 0.00 2.21 0.00 76 1010.2
20260508034506 15 270 6.4 14.5 0.00 2.21 0.00 76 1010.2
20260508034406 15 282 6.4 14.5 0.00 2.21 0.00 76 1010.2
20260508034205 15 299 4.8 14.5 0.00 2.21 0.00 77 1010.2
20260508034106 15 286 4.8 12.9 0.00 2.21 0.00 77 1010.2
20260508034006 15 261 4.8 12.9 0.00 2.21 0.00 77 1010.2
20260508033805 15 233 4.8 12.9 0.00 2.21 0.00 77 1010.2
20260508033705 15 330 4.8 12.9 0.00 2.21 0.00 76 1010.1
20260508033604 15 314 4.8 12.9 0.00 2.21 0.00 76 1010.2
20260508033508 15 311 4.8 12.9 0.00 2.21 0.00 76 1010.2
20260508033404 15 325 4.8 12.9 0.00 2.21 0.00 76 1010.1
20260508033305 15 325 4.8 12.9 0.00 2.21 0.00 76 1010.2
20260508033105 15 343 6.4 14.5 0.00 2.21 0.00 76 1010.1
20260508033009 15 335 6.4 14.5 0.00 2.21 0.00 76 1010.1
20260508032705 15 330 6.4 14.5 0.00 2.21 0.00 76 1010.0
20260508032605 15 319 6.4 14.5 0.00 2.21 0.00 76 1009.9
20260508032507 15 335 4.8 14.5 0.00 2.21 0.00 76 1009.9
20260508032406 15 343 4.8 14.5 0.00 2.21 0.00 76 1009.9
20260508032206 15 343 4.8 12.9 0.00 2.21 0.00 76 1010.0
20260508032106 15 347 4.8 12.9 0.00 2.21 0.00 76 1010.0
20260508032008 15 320 6.4 12.9 0.00 2.21 0.00 76 1010.1
20260508031805 15 181 6.4 16.1 0.00 2.21 0.00 76 1010.1
20260508031707 15 325 6.4 16.1 0.00 2.21 0.00 76 1010.1
20260508031406 15 267 6.4 16.1 0.00 2.21 0.00 76 1010.3
20260508031305 15 310 6.4 16.1 0.00 2.21 0.00 75 1010.3
20260508031204 15 351 8.0 16.1 0.00 2.21 0.00 75 1010.3
20260508031107 15 341 8.0 16.1 0.00 2.21 0.00 75 1010.3
20260508030905 15 313 6.4 16.1 0.00 2.21 0.00 76 1010.3
20260508030805 15 335 6.4 14.5 0.00 2.21 0.00 75 1010.4
20260508030705 15 309 6.4 14.5 0.00 2.21 0.00 75 1010.3
20260508030605 15 305 6.4 14.5 0.00 2.21 0.00 75 1010.3
20260508030507 15 14 6.4 14.5 0.00 2.21 0.00 75 1010.4
20260508030405 15 277 6.4 14.5 0.00 2.21 0.00 75 1010.3
20260508030306 15 280 6.4 14.5 0.00 2.21 0.00 75 1010.3
20260508030105 15 267 4.8 14.5 0.00 2.21 0.00 76 1010.4
20260508030007 15 325 6.4 12.9 0.00 2.21 0.00 76 1010.3
20260508025906 15 234 6.4 12.9 0.00 2.21 0.00 76 1010.3
20260508025806 15 325 6.4 12.9 0.00 2.21 0.00 76 1010.3
20260508025706 15 235 6.4 12.9 0.00 2.21 0.00 76 1010.4
20260508025605 15 335 6.4 12.9 0.00 2.21 0.00 76 1010.5
20260508025407 15 335 6.4 14.5 0.00 2.21 0.00 76 1010.5
20260508025207 15 345 8.0 14.5 0.00 2.21 0.00 76 1010.4
20260508025105 15 339 8.0 14.5 0.00 2.21 0.00 76 1010.5
20260508025007 15 330 8.0 14.5 0.00 2.21 0.00 76 1010.5
20260508024907 15 239 9.7 14.5 0.00 2.21 0.00 76 1010.5
20260508024804 15 320 8.0 14.5 0.00 2.21 0.00 76 1010.6
20260508024705 15 314 8.0 14.5 0.00 2.21 0.00 76 1010.6
20260508024605 15 330 8.0 14.5 0.00 2.21 0.00 76 1010.6
20260508024507 15 256 8.0 14.5 0.00 2.21 0.00 76 1010.6
20260508024404 15 239 8.0 14.5 0.00 2.21 0.00 76 1010.5
20260508024205 15 297 8.0 14.5 0.00 2.21 0.00 76 1010.6
20260508024107 15 317 6.4 16.1 0.00 2.21 0.00 76 1010.7
20260508024006 15 314 6.4 16.1 0.00 2.21 0.00 77 1010.7
20260508023906 15 312 6.4 16.1 0.00 2.21 0.00 77 1010.8
20260508023805 15 262 6.4 16.1 0.00 2.21 0.00 77 1010.7
20260508023707 15 325 6.4 16.1 0.00 2.21 0.00 77 1010.7
20260508023607 15 299 6.4 16.1 0.00 2.21 0.00 77 1010.6
20260508023508 15 261 6.4 16.1 0.00 2.21 0.00 77 1010.7
20260508023407 15 325 6.4 16.1 0.00 2.21 0.00 77 1010.7
20260508023306 15 261 4.8 16.1 0.00 2.21 0.00 78 1010.6
20260508023206 15 301 4.8 12.9 0.00 2.21 0.00 78 1010.6
20260508023104 15 325 6.4 12.9 0.00 2.21 0.00 78 1010.6
20260508023007 15 270 6.4 12.9 0.00 2.21 0.00 78 1010.6
20260508022905 15 312 6.4 9.7 0.00 2.21 0.00 78 1010.7
20260508022805 15 274 6.4 9.7 0.00 2.21 0.00 79 1010.7
20260508022706 15 303 6.4 9.7 0.00 2.21 0.00 79 1010.7
20260508022605 15 330 6.4 9.7 0.00 2.21 0.00 79 1010.7
20260508022507 15 300 6.4 9.7 0.00 2.21 0.00 79 1010.7
20260508022405 15 291 6.4 11.3 0.00 2.21 0.00 79 1010.7
20260508022307 15 330 4.8 9.7 0.00 2.21 0.00 80 1010.6
20260508022205 15 312 4.8 9.7 0.00 2.21 0.00 80 1010.7
20260508022104 15 325 4.8 11.3 0.00 2.21 0.00 80 1010.7
20260508021905 15 316 3.2 8.0 0.00 2.21 0.00 80 1010.7
20260508021806 15 265 3.2 8.0 0.00 2.21 0.00 80 1010.7
20260508021605 15 301 3.2 8.0 0.00 2.21 0.00 80 1010.7
20260508021506 15 305 3.2 6.4 0.00 2.21 0.00 80 1010.7
20260508021404 15 275 3.2 6.4 0.00 2.21 0.00 80 1010.7
20260508021204 15 316 3.2 9.7 0.00 2.21 0.00 80 1010.7
20260508020905 15 247 3.2 9.7 0.00 2.21 0.00 79 1010.7
20260508020807 15 247 4.8 9.7 0.00 2.21 0.00 79 1010.6
20260508020606 15 262 4.8 9.7 0.00 2.21 0.00 79 1010.7
20260508020405 15 303 4.8 9.7 0.00 2.21 0.00 79 1010.7
20260508020305 15 246 4.8 9.7 0.00 2.21 0.00 79 1010.6
20260508020205 15 286 4.8 12.9 0.00 2.21 0.00 79 1010.6
20260508020106 15 250 4.8 12.9 0.00 2.21 0.00 78 1010.5
20260508015904 15 249 6.4 12.9 0.00 2.21 0.00 78 1010.6
20260508015805 15 319 6.4 12.9 0.00 2.21 0.00 78 1010.6
20260508015705 15 354 6.4 12.9 0.00 2.21 0.00 78 1010.6
20260508015405 15 235 6.4 14.5 0.00 2.21 0.00 78 1010.6
20260508015306 15 320 6.4 14.5 0.00 2.21 0.00 79 1010.5
20260508015205 15 262 6.4 14.5 0.00 2.21 0.00 79 1010.6
20260508015106 15 350 6.4 14.5 0.00 2.21 0.00 79 1010.6
20260508015006 15 259 8.0 16.1 0.00 2.21 0.00 79 1010.6
20260508014906 15 343 8.0 16.1 0.00 2.21 0.00 79 1010.6
20260508014805 15 278 8.0 16.1 0.00 2.21 0.00 79 1010.6
20260508014706 15 312 8.0 16.1 0.00 2.21 0.00 79 1010.6
20260508014606 15 260 8.0 16.1 0.00 2.21 0.00 79 1010.6
20260508014506 15 319 8.0 16.1 0.00 2.21 0.00 79 1010.6
20260508014405 15 288 8.0 16.1 0.00 2.21 0.00 79 1010.7
20260508014305 15 293 8.0 16.1 0.00 2.21 0.00 79 1010.7
20260508014206 15 316 6.4 16.1 0.00 2.21 0.00 79 1010.6
20260508013905 15 233 6.4 14.5 0.00 2.21 0.00 79 1010.7
20260508013806 15 260 6.4 16.1 0.00 2.21 0.00 79 1010.7
20260508013706 15 291 8.0 16.1 0.00 2.21 0.00 79 1010.8
20260508013605 15 343 8.0 16.1 0.00 2.21 0.00 79 1010.8
20260508013507 15 292 8.0 16.1 0.00 2.21 0.00 79 1010.9
20260508013405 15 306 8.0 16.1 0.00 2.21 0.00 79 1010.8
20260508013306 15 339 8.0 16.1 0.00 2.21 0.00 79 1010.8
20260508013206 15 281 8.0 16.1 0.00 2.21 0.00 79 1010.8
20260508013106 15 341 8.0 16.1 0.00 2.21 0.00 79 1010.9
20260508013007 15 297 9.7 16.1 0.00 2.21 0.00 79 1010.9
20260508012906 15 254 9.7 16.1 0.00 2.21 0.00 78 1010.9
20260508012805 15 325 8.0 17.7 0.00 2.21 0.00 78 1010.9
20260508012704 15 325 8.0 17.7 0.00 2.21 0.00 78 1010.9
20260508012605 15 335 8.0 17.7 0.00 2.21 0.00 78 1010.9
20260508012406 15 340 8.0 17.7 0.00 2.21 0.00 78 1010.9
20260508012308 15 312 8.0 17.7 0.00 2.21 0.00 78 1011.0
20260508012205 15 232 9.7 17.7 0.00 2.21 0.00 78 1011.0
20260508012105 15 302 8.0 17.7 0.00 2.21 0.00 78 1011.0
20260508012007 15 256 8.0 17.7 0.00 2.21 0.00 79 1011.0
20260508011905 15 325 8.0 17.7 0.00 2.21 0.00 79 1011.1
20260508011806 15 316 8.0 17.7 0.00 2.21 0.00 79 1011.0
20260508011705 15 321 8.0 17.7 0.00 2.21 0.00 79 1011.1
20260508011604 15 330 8.0 17.7 0.00 2.21 0.00 79 1011.1
20260508011404 15 302 8.0 17.7 0.00 2.21 0.00 79 1011.1
20260508011305 15 291 8.0 17.7 0.00 2.21 0.00 79 1011.1
20260508011205 15 259 6.4 17.7 0.00 2.21 0.00 79 1011.1
20260508011106 15 330 6.4 17.7 0.00 2.21 0.00 79 1011.1
20260508011008 15 291 6.4 17.7 0.00 2.21 0.00 80 1011.1
20260508010905 15 299 6.4 17.7 0.00 2.21 0.00 80 1011.2
20260508010805 15 307 6.4 17.7 0.00 2.21 0.00 80 1011.1
20260508010705 15 330 8.0 14.5 0.00 2.21 0.00 80 1011.1
20260508010604 15 299 8.0 16.1 0.00 2.21 0.00 80 1011.1
20260508010507 15 290 8.0 16.1 0.00 2.21 0.00 80 1011.2
20260508010304 15 284 8.0 16.1 0.00 2.21 0.00 80 1011.2
20260508010205 15 250 8.0 17.7 0.00 2.21 0.00 80 1011.2
20260508010106 15 301 8.0 17.7 0.00 2.21 0.00 80 1011.3
20260508010011 15 308 9.7 17.7 0.00 2.21 0.00 80 1011.3
20260508005905 15 270 9.7 19.3 0.00 2.21 0.00 81 1011.3
20260508005804 15 306 9.7 19.3 0.00 2.21 0.00 80 1011.4
20260508005704 15 325 9.7 19.3 0.00 2.21 0.00 81 1011.3
20260508005605 15 339 9.7 19.3 0.00 2.21 0.00 80 1011.3
20260508005507 15 318 9.7 19.3 0.00 2.21 0.00 80 1011.3
20260508005407 15 296 9.7 19.3 0.00 2.21 0.00 80 1011.2
20260508005306 15 330 8.0 19.3 0.00 2.21 0.00 80 1011.3
20260508005205 15 335 8.0 19.3 0.00 2.21 0.00 80 1011.3
20260508005104 15 343 8.0 19.3 0.00 2.21 0.00 80 1011.3
20260508005007 15 279 8.0 19.3 0.00 2.21 0.00 80 1011.3
20260508004904 15 330 8.0 17.7 0.00 2.21 0.00 80 1011.2
20260508004805 15 314 8.0 19.3 0.00 2.21 0.00 80 1011.3
20260508004605 15 311 8.0 19.3 0.00 2.21 0.00 80 1011.2
20260508004506 15 274 8.0 19.3 0.00 2.21 0.00 80 1011.2
20260508004405 15 321 8.0 19.3 0.00 2.21 0.00 80 1011.1
20260508004204 15 305 8.0 19.3 0.00 2.21 0.00 80 1011.2
20260508004105 15 319 8.0 19.3 0.00 2.21 0.00 80 1011.2
20260508004009 15 306 8.0 19.3 0.00 2.21 0.00 80 1011.1
20260508003709 15 207 8.0 17.7 0.00 2.21 0.00 80 1011.1
20260508003605 15 282 8.0 17.7 0.00 2.21 0.00 80 1011.2
20260508003306 15 253 8.0 17.7 0.00 2.21 0.00 80 1011.2
20260508003105 15 342 8.0 17.7 0.00 2.21 0.00 80 1011.2
20260508002805 15 325 6.4 16.1 0.00 2.21 0.00 81 1011.3
20260508002404 15 340 6.4 16.1 0.00 2.21 0.00 82 1011.3
20260508002206 15 330 4.8 16.1 0.00 2.21 0.00 82 1011.2
20260508002101 15 228 4.8 12.9 0.00 2.21 0.00 82 1011.3
20260508001900 15 339 4.8 12.9 0.00 2.21 0.00 82 1011.4
20260508001800 15 302 4.8 12.9 0.00 2.21 0.00 82 1011.4
20260508001704 15 294 4.8 12.9 0.00 2.21 0.00 82 1011.4
20260508001606 15 355 3.2 12.9 0.00 2.21 0.00 82 1011.3
20260508001508 15 279 3.2 9.7 0.00 2.21 0.00 82 1011.5
20260508001405 15 318 3.2 9.7 0.00 2.21 0.00 82 1011.5
20260508001305 15 244 3.2 9.7 0.00 2.21 0.00 82 1011.5
20260508001105 15 314 3.2 9.7 0.00 2.21 0.00 82 1011.5
20260508000904 15 243 3.2 9.7 0.00 2.21 0.00 82 1011.5
20260508000805 15 335 3.2 9.7 0.00 2.21 0.00 82 1011.5
20260508000704 15 260 3.2 8.0 0.00 2.21 0.00 82 1011.5
20260508000606 15 234 3.2 8.0 0.00 2.21 0.00 82 1011.5
20260508000507 15 232 3.2 8.0 0.00 2.21 0.00 82 1011.6
20260508000305 15 335 3.2 8.0 0.00 2.21 0.00 82 1011.6
20260508000205 15 330 3.2 8.0 0.00 2.21 0.00 82 1011.6
20260508000013 15 240 3.2 8.0 0.00 2.21 0.00 82 1011.6
20260507235907 15 282 3.2 8.0 0.00 2.21 0.00 82 1011.6
20260507235705 15 330 3.2 8.0 0.00 2.21 0.00 82 1011.6
20260507235604 15 330 3.2 8.0 0.00 2.21 0.00 82 1011.6
20260507235510 15 330 4.8 8.0 0.00 2.21 0.00 82 1011.7
20260507235405 15 349 4.8 8.0 0.00 2.21 0.00 82 1011.6
20260507235306 15 314 4.8 8.0 0.00 2.21 0.00 81 1011.6
20260507235206 15 282 4.8 11.3 0.00 2.21 0.00 81 1011.6
20260507235105 15 236 4.8 11.3 0.00 2.21 0.00 81 1011.7
20260507235006 15 283 4.8 11.3 0.00 2.21 0.00 81 1011.7
20260507234905 15 308 4.8 11.3 0.00 2.21 0.00 81 1011.7
20260507234804 15 285 4.8 11.3 0.00 2.21 0.00 81 1011.7
20260507234605 15 249 4.8 11.3 0.00 2.21 0.00 81 1011.7
20260507234508 15 240 4.8 11.3 0.00 2.21 0.00 81 1011.7
20260507234404 15 240 4.8 12.9 0.00 2.21 0.00 80 1011.7
20260507234205 15 262 6.4 12.9 0.00 2.21 0.00 80 1011.8
20260507234105 15 240 6.4 12.9 0.00 2.21 0.00 80 1011.7
20260507234007 15 325 6.4 16.1 0.00 2.21 0.00 80 1011.7
20260507233905 15 316 8.0 16.1 0.00 2.21 0.00 80 1011.7
20260507233804 15 295 8.0 17.7 0.00 2.21 0.00 80 1011.7
20260507233706 15 285 8.0 17.7 0.00 2.21 0.00 80 1011.7
20260507233606 15 342 8.0 17.7 0.00 2.21 0.00 80 1011.7
20260507233506 15 319 8.0 17.7 0.00 2.21 0.00 80 1011.8
20260507233405 15 302 8.0 17.7 0.00 2.21 0.00 80 1011.7
20260507233304 15 265 8.0 17.7 0.00 2.21 0.00 80 1011.7
20260507233205 15 298 8.0 17.7 0.00 2.21 0.00 80 1011.7
20260507233007 15 330 8.0 17.7 0.00 2.21 0.00 81 1011.6
20260507232905 15 299 8.0 14.5 0.00 2.21 0.00 81 1011.6
20260507232806 15 311 8.0 14.5 0.00 2.21 0.00 81 1011.6
20260507232705 15 264 8.0 14.5 0.00 2.21 0.00 81 1011.7
20260507232612 15 345 8.0 14.5 0.00 2.21 0.00 81 1011.7
20260507232405 15 301 6.4 14.5 0.00 2.21 0.00 81 1011.7
20260507232105 15 339 6.4 14.5 0.00 2.21 0.00 81 1011.7
20260507232012 15 335 6.4 12.9 0.00 2.21 0.00 81 1011.8
20260507231907 15 321 4.8 12.9 0.00 2.21 0.00 81 1011.8
20260507231806 15 293 4.8 12.9 0.00 2.21 0.00 81 1011.8
20260507231705 15 262 4.8 12.9 0.00 2.21 0.00 82 1011.8
20260507231606 15 325 4.8 9.7 0.00 2.21 0.00 82 1011.9
20260507231404 15 330 4.8 9.7 0.00 2.21 0.00 82 1011.9
20260507231304 15 312 4.8 9.7 0.00 2.21 0.00 82 1011.9
20260507231206 15 279 4.8 9.7 0.00 2.21 0.00 82 1011.9
20260507231106 15 245 4.8 9.7 0.00 2.21 0.00 82 1011.9
20260507231007 15 291 4.8 9.7 0.00 2.21 0.00 82 1011.9
20260507230906 15 299 4.8 14.5 0.00 2.21 0.00 82 1011.9
20260507230805 15 259 6.4 14.5 0.00 2.21 0.00 82 1011.9
20260507230704 15 342 6.4 14.5 0.00 2.21 0.00 82 1011.9
20260507230607 15 258 6.4 14.5 0.00 2.21 0.00 82 1012.0
20260507230507 15 308 6.4 14.5 0.00 2.21 0.00 82 1011.9
20260507230305 15 325 4.8 14.5 0.00 2.21 0.00 82 1012.0
20260507230205 15 320 4.8 14.5 0.00 2.21 0.00 82 1012.0
20260507230104 15 347 4.8 14.5 0.00 2.21 0.00 82 1012.0
20260507225904 15 325 4.8 9.7 0.00 2.21 0.00 82 1012.0
20260507225805 15 275 4.8 9.7 0.00 2.21 0.00 82 1012.0
20260507225604 15 280 4.8 9.7 0.00 2.21 0.00 82 1012.0
20260507225405 15 330 4.8 9.7 0.00 2.21 0.00 82 1012.0
20260507225306 15 335 4.8 9.7 0.00 2.21 0.00 82 1012.0
20260507225206 15 283 4.8 9.7 0.00 2.21 0.00 82 1012.0
20260507225107 15 320 4.8 9.7 0.00 2.21 0.00 82 1012.0
20260507225007 15 279 4.8 9.7 0.00 2.21 0.00 82 1012.0
20260507224906 15 254 4.8 9.7 0.00 2.21 0.00 82 1012.0
20260507224806 15 262 4.8 9.7 0.00 2.21 0.00 82 1012.0
20260507224705 15 304 4.8 9.7 0.00 2.21 0.00 82 1012.0
20260507224608 15 314 3.2 9.7 0.00 2.21 0.00 82 1012.0
20260507224406 15 226 3.2 8.0 0.00 2.21 0.00 82 1012.0
20260507224305 15 256 3.2 8.0 0.00 2.21 0.00 82 1012.0
20260507224205 15 268 3.2 8.0 0.00 2.21 0.00 82 1012.0
20260507224104 15 312 3.2 8.0 0.00 2.21 0.00 82 1012.0
20260507224008 15 264 3.2 8.0 0.00 2.21 0.00 82 1012.0
20260507223906 15 306 3.2 8.0 0.00 2.21 0.00 82 1012.0
20260507223804 15 314 3.2 8.0 0.00 2.21 0.00 82 1011.9
20260507223704 15 359 3.2 8.0 0.00 2.21 0.00 82 1011.9
20260507223605 15 299 3.2 8.0 0.00 2.21 0.00 82 1012.0
20260507223506 15 272 3.2 9.7 0.00 2.21 0.00 82 1011.8
20260507223406 15 325 3.2 9.7 0.00 2.21 0.00 82 1012.0
20260507223304 15 335 3.2 9.7 0.00 2.21 0.00 82 1011.9
20260507223204 15 335 4.8 9.7 0.00 2.21 0.00 82 1011.8
20260507223008 15 335 4.8 9.7 0.00 2.21 0.00 83 1011.9
20260507222904 15 325 4.8 9.7 0.00 2.21 0.00 83 1011.9
20260507222708 15 325 4.8 12.9 0.00 2.21 0.00 83 1011.9
20260507222606 15 6 4.8 12.9 0.00 2.21 0.00 83 1011.9
20260507222507 15 316 4.8 12.9 0.00 2.21 0.00 83 1011.9
20260507222406 15 339 4.8 12.9 0.00 2.21 0.00 82 1011.8
20260507222306 15 239 4.8 12.9 0.00 2.21 0.00 82 1011.8
20260507222105 15 294 4.8 12.9 0.00 2.21 0.00 82 1011.8
20260507222007 15 343 4.8 12.9 0.00 2.21 0.00 82 1011.8
20260507221906 15 348 4.8 12.9 0.00 2.21 0.00 82 1011.9
20260507221805 15 335 4.8 12.9 0.00 2.21 0.00 82 1011.8
20260507221705 15 216 4.8 12.9 0.00 2.21 0.00 82 1011.8
20260507221604 15 341 6.4 14.5 0.00 2.21 0.00 82 1011.8
20260507221508 15 335 6.4 14.5 0.00 2.21 0.00 82 1011.8
20260507221304 15 229 8.0 16.1 0.00 2.21 0.00 82 1011.8
20260507221206 15 306 8.0 16.1 0.00 2.21 0.00 82 1011.8
20260507221106 15 298 8.0 16.1 0.00 2.21 0.00 82 1011.9
20260507221006 15 314 8.0 16.1 0.00 2.21 0.00 82 1011.8
20260507220906 15 339 8.0 16.1 0.00 2.21 0.00 82 1011.8
20260507220806 15 258 8.0 16.1 0.00 2.21 0.00 82 1011.9
20260507220605 15 293 8.0 16.1 0.00 2.21 0.00 82 1011.9
20260507220507 15 325 8.0 16.1 0.00 2.21 0.00 82 1011.9
20260507220406 15 295 8.0 16.1 0.00 2.21 0.00 82 1011.8
20260507220208 15 279 8.0 16.1 0.00 2.21 0.00 82 1011.9
20260507215708 15 330 8.0 16.1 0.00 2.21 2.21 83 1011.8
20260507215606 15 310 8.0 16.1 0.00 2.21 2.21 83 1011.8
20260507215509 15 239 8.0 16.1 0.00 2.21 2.21 83 1011.8
20260507215408 15 320 8.0 16.1 0.00 2.21 2.21 83 1011.8
20260507215308 15 312 8.0 16.1 0.00 2.21 2.21 83 1011.8
20260507215207 15 261 8.0 16.1 0.00 2.21 2.21 83 1011.8
20260507215107 15 140 8.0 16.1 0.00 2.21 2.21 83 1011.8
20260507215010 15 293 8.0 16.1 0.00 2.21 2.21 83 1011.7
20260507214908 15 301 8.0 16.1 0.00 2.21 2.21 83 1011.8
20260507214807 15 330 9.7 17.7 0.00 2.21 2.21 83 1011.8
20260507214708 15 276 9.7 17.7 0.00 2.21 2.21 83 1011.8
20260507214608 15 304 9.7 17.7 0.00 2.21 2.21 84 1011.8
20260507214509 15 321 9.7 17.7 0.00 2.21 2.21 84 1011.8
20260507214407 14 325 9.7 17.7 0.00 2.21 2.21 84 1011.8
20260507214307 14 351 9.7 17.7 0.00 2.21 2.21 84 1011.8
20260507214207 14 335 9.7 17.7 0.00 2.21 2.21 84 1011.8
20260507214108 14 316 9.7 17.7 0.00 2.21 2.21 84 1011.8
20260507214010 14 335 9.7 17.7 0.00 2.21 2.21 84 1011.8
20260507213907 14 330 9.7 17.7 0.00 2.21 2.21 84 1011.8
20260507213808 14 341 9.7 17.7 0.00 2.21 2.21 84 1011.8
20260507213707 14 354 8.0 17.7 0.00 2.21 2.21 84 1011.8
20260507213607 14 335 8.0 16.1 0.00 2.21 2.21 84 1011.7
20260507213407 14 311 8.0 16.1 0.00 2.21 2.21 84 1011.8
20260507213206 14 343 6.4 16.1 0.00 2.21 2.21 85 1011.8
20260507213009 14 320 6.4 16.1 0.00 2.21 2.21 85 1011.8
20260507212708 14 306 4.8 12.9 0.00 2.21 2.21 85 1011.8
20260507212608 14 6 4.8 12.9 0.00 2.21 2.21 86 1011.7
20260507212407 14 279 4.8 12.9 0.00 2.21 2.21 86 1011.6
20260507212308 14 280 4.8 9.7 0.00 2.21 2.21 86 1011.7
20260507212206 14 335 4.8 9.7 0.00 2.21 2.21 86 1011.6
20260507212106 14 207 4.8 9.7 0.00 2.21 2.21 86 1011.7
20260507212009 14 305 4.8 9.7 0.00 2.21 2.21 86 1011.7
20260507211909 14 311 4.8 9.7 0.00 2.21 2.21 86 1011.6
20260507211808 14 310 4.8 9.7 0.00 2.21 2.21 87 1011.6
20260507211708 14 255 4.8 9.7 0.00 2.21 2.21 87 1011.7
20260507211609 14 306 4.8 9.7 0.00 2.21 2.21 87 1011.6
20260507211510 14 339 4.8 9.7 0.00 2.21 2.21 87 1011.6
20260507211406 14 267 4.8 9.7 0.00 2.21 2.21 87 1011.6
20260507211206 14 253 4.8 9.7 0.00 2.21 2.21 87 1011.6
20260507211108 14 266 3.2 9.7 0.00 2.21 2.21 87 1011.6
20260507211010 14 288 3.2 8.0 0.00 2.21 2.21 87 1011.5
20260507210907 14 289 3.2 8.0 0.00 2.21 2.21 87 1011.5
20260507210809 14 358 3.2 8.0 0.00 2.21 2.21 87 1011.5
20260507210708 14 297 3.2 8.0 0.00 2.21 2.21 87 1011.4
20260507210606 14 330 3.2 8.0 0.00 2.21 2.21 87 1011.4
20260507210509 14 325 3.2 6.4 0.00 2.21 2.21 87 1011.4
20260507210408 14 266 3.2 6.4 0.00 2.21 2.21 88 1011.4
20260507210207 14 237 3.2 6.4 0.00 2.21 2.21 88 1011.4
20260507210107 14 259 3.2 6.4 0.00 2.21 2.21 88 1011.3
20260507205907 14 344 3.2 6.4 0.00 2.21 2.21 88 1011.4
20260507205807 14 245 4.8 6.4 0.00 2.21 2.21 88 1011.4
20260507205706 14 245 4.8 6.4 0.00 2.21 2.21 88 1011.3
20260507205606 14 245 4.8 8.0 0.00 2.21 2.21 88 1011.3
20260507205508 14 244 4.8 8.0 0.00 2.21 2.21 88 1011.3
20260507205307 14 240 3.2 8.0 0.00 2.21 2.21 88 1011.3
20260507205206 14 215 3.2 8.0 0.00 2.21 2.21 88 1011.3
20260507205013 14 244 3.2 8.0 0.00 2.21 2.21 88 1011.3
20260507204907 14 240 3.2 8.0 0.00 2.21 2.21 88 1011.3
20260507204707 14 257 3.2 9.7 0.00 2.21 2.21 88 1011.2
20260507204606 14 227 3.2 6.4 0.00 2.21 2.21 89 1011.3
20260507204507 14 231 1.6 6.4 0.00 2.21 2.21 89 1011.2
20260507204406 14 285 1.6 6.4 0.00 2.21 2.21 89 1011.2
20260507204305 14 256 1.6 6.4 0.00 2.21 2.21 89 1011.2
20260507204206 14 249 1.6 6.4 0.00 2.21 2.21 89 1011.2
20260507204106 14 237 1.6 6.4 0.03 2.21 2.21 89 1011.2
20260507203906 14 305 1.6 6.4 0.03 2.21 2.21 89 1011.2
20260507203807 14 248 1.6 6.4 0.03 2.21 2.21 89 1011.2
20260507203706 14 248 3.2 6.4 0.03 2.21 2.21 89 1011.2
20260507203606 14 248 3.2 6.4 0.03 2.21 2.21 89 1011.2
20260507203406 14 248 4.8 9.7 0.03 2.21 2.21 89 1011.2
20260507203306 14 261 4.8 9.7 0.03 2.21 2.21 89 1011.2
20260507203208 14 269 4.8 9.7 0.03 2.21 2.21 89 1011.2
20260507203107 14 254 4.8 9.7 0.03 2.21 2.21 89 1011.3
20260507203009 14 231 4.8 9.7 0.05 2.21 2.21 89 1011.3
20260507202914 14 237 4.8 9.7 0.05 2.21 2.21 89 1011.4
20260507202806 14 224 4.8 9.7 0.05 2.21 2.21 89 1011.3
20260507202707 14 245 4.8 9.7 0.05 2.21 2.21 89 1011.4
20260507202607 14 227 3.2 9.7 0.05 2.21 2.21 89 1011.4
20260507202407 14 234 3.2 9.7 0.05 2.21 2.21 89 1011.3
20260507202010 14 209 3.2 6.4 0.08 2.21 2.21 89 1011.3
20260507201906 14 191 3.2 6.4 0.08 2.21 2.21 89 1011.3
20260507201806 14 206 3.2 6.4 0.10 2.21 2.21 89 1011.3
20260507201708 14 260 3.2 6.4 0.10 2.21 2.21 89 1011.3
20260507201508 14 226 1.6 6.4 0.10 2.21 2.21 89 1011.4
20260507201408 14 242 3.2 6.4 0.10 2.21 2.21 89 1011.4
20260507201305 14 259 3.2 9.7 0.13 2.21 2.21 89 1011.4
20260507201207 14 259 3.2 9.7 0.13 2.21 2.21 89 1011.3
20260507201107 14 259 3.2 9.7 0.13 2.21 2.21 89 1011.3
20260507201008 14 259 3.2 9.7 0.15 2.21 2.21 89 1011.3
20260507200907 14 254 3.2 9.7 0.15 2.21 2.21 89 1011.3
20260507200806 14 346 3.2 9.7 0.15 2.21 2.21 89 1011.3
20260507200706 14 346 3.2 9.7 0.18 2.21 2.21 89 1011.3
20260507200606 14 360 3.2 9.7 0.18 2.21 2.21 89 1011.3
20260507200509 14 271 3.2 9.7 0.20 2.21 2.21 89 1011.4
20260507200406 14 260 3.2 9.7 0.20 2.21 2.21 89 1011.3
20260507200306 14 6 3.2 9.7 0.23 2.21 2.21 89 1011.2
20260507200206 14 247 3.2 9.7 0.23 2.21 2.21 89 1011.3
20260507200108 14 264 3.2 9.7 0.23 2.21 2.21 89 1011.2
20260507195809 14 231 3.2 9.7 0.33 2.21 2.21 89 1011.3
20260507195708 14 287 3.2 9.7 0.36 2.21 2.21 88 1011.2
20260507195606 14 339 3.2 9.7 0.43 2.21 2.21 88 1011.2
20260507195406 14 290 4.8 9.7 0.51 2.21 2.21 88 1011.2
20260507195308 14 239 4.8 9.7 0.58 2.21 2.21 88 1011.3
20260507195206 14 225 4.8 9.7 0.61 2.21 2.21 88 1011.2
20260507195106 14 266 4.8 16.1 0.69 2.21 2.21 88 1011.2
20260507195010 14 244 4.8 16.1 0.71 2.21 2.21 88 1011.2
20260507194907 14 210 6.4 16.1 0.74 2.21 2.21 88 1011.2
20260507194817 14 258 6.4 16.1 0.74 2.21 2.21 88 1011.2
20260507194721 14 210 6.4 16.1 0.74 2.21 2.21 88 1011.1
20260507194408 14 224 6.4 16.1 0.74 2.21 2.21 88 1011.1
20260507194206 14 307 8.0 16.1 0.74 2.21 2.21 88 1011.0
20260507194109 14 263 8.0 17.7 0.71 2.18 2.18 88 1011.0
20260507194008 14 309 8.0 17.7 0.71 2.18 2.18 87 1011.1
20260507193905 14 298 9.7 17.7 0.71 2.18 2.18 87 1011.1
20260507193807 14 335 9.7 17.7 0.71 2.18 2.18 87 1011.0
20260507193707 14 304 9.7 17.7 0.71 2.18 2.18 87 1011.1
20260507193607 14 314 11.3 17.7 0.71 2.18 2.18 87 1011.1
20260507193510 14 317 11.3 17.7 0.71 2.18 2.18 87 1011.1
20260507193406 14 266 11.3 20.9 0.71 2.18 2.18 87 1011.1
20260507193306 14 344 11.3 20.9 0.71 2.18 2.18 87 1011.1
20260507193206 14 299 11.3 22.5 0.71 2.18 2.18 87 1011.2
20260507193108 14 335 12.9 22.5 0.71 2.18 2.18 86 1011.1
20260507193008 14 261 12.9 22.5 0.71 2.16 2.16 86 1011.2
20260507192907 14 293 12.9 22.5 0.71 2.16 2.16 86 1011.1
20260507192807 14 294 12.9 22.5 0.71 2.16 2.16 86 1011.2
20260507192706 14 330 12.9 22.5 0.71 2.16 2.16 86 1011.1
20260507192606 14 325 12.9 22.5 0.71 2.16 2.16 86 1011.1
20260507192407 14 288 12.9 22.5 0.71 2.16 2.16 86 1011.2
20260507192306 14 241 11.3 22.5 0.69 2.13 2.13 86 1011.2
20260507192206 14 312 11.3 22.5 0.69 2.13 2.13 86 1011.2
20260507192106 14 330 11.3 19.3 0.69 2.13 2.13 86 1011.2
20260507192008 14 321 11.3 17.7 0.66 2.11 2.11 85 1011.2
20260507191906 14 320 11.3 17.7 0.66 2.11 2.11 85 1011.2
20260507191813 14 265 11.3 22.5 0.64 2.11 2.11 85 1011.2
20260507185807 15 276 9.7 22.5 0.41 1.85 1.85 80 1011.1
20260507185707 15 313 8.0 22.5 0.38 1.83 1.83 79 1011.2
20260507185408 16 330 8.0 19.3 0.23 1.68 1.68 78 1011.1
20260507185306 16 320 8.0 17.7 0.15 1.63 1.63 77 1011.0
20260507185209 16 339 8.0 17.7 0.13 1.57 1.57 77 1011.0
20260507185109 16 306 8.0 25.7 0.05 1.52 1.52 76 1011.1
20260507185011 16 281 8.0 25.7 0.03 1.47 1.47 76 1011.0
20260507184910 16 30 8.0 25.7 0.00 1.45 1.45 75 1011.0
20260507184807 16 120 8.0 25.7 0.00 1.45 1.45 75 1011.0
20260507184707 16 209 8.0 25.7 0.00 1.45 1.45 75 1011.0
20260507184609 16 345 8.0 25.7 0.00 1.45 1.45 75 1010.8
20260507184511 17 319 8.0 25.7 0.00 1.45 1.45 75 1010.9
20260507184408 17 325 8.0 25.7 0.00 1.45 1.45 75 1010.9
20260507184307 17 292 6.4 25.7 0.00 1.45 1.45 76 1010.8
20260507184206 17 246 6.4 17.7 0.00 1.45 1.45 77 1010.7
20260507184107 17 298 4.8 17.7 0.00 1.45 1.45 77 1010.8
20260507184014 17 313 4.8 17.7 0.00 1.45 1.45 79 1010.8
20260507183809 18 354 4.8 14.5 0.00 1.45 1.45 79 1010.5
20260507183707 18 342 4.8 12.9 0.00 1.45 1.45 79 1010.5
20260507183607 18 354 4.8 12.9 0.00 1.45 1.45 80 1010.4
20260507183509 18 314 4.8 14.5 0.00 1.45 1.45 80 1010.5
20260507183306 18 343 4.8 14.5 0.00 1.45 1.45 80 1010.4
20260507183207 18 8 4.8 14.5 0.00 1.45 1.45 80 1010.3
20260507183008 18 325 6.4 14.5 0.00 1.45 1.45 80 1010.2
20260507182907 18 16 6.4 14.5 0.00 1.45 1.45 80 1010.2
20260507182707 18 106 6.4 16.1 0.00 1.45 1.45 79 1010.1
20260507182608 18 310 6.4 16.1 0.00 1.45 1.45 79 1010.1
20260507182509 18 37 6.4 16.1 0.00 1.45 1.45 79 1010.1
20260507182307 18 98 8.0 16.1 0.00 1.45 1.45 79 1010.1
20260507182206 18 56 8.0 17.7 0.00 1.45 1.45 79 1010.0
20260507182106 18 87 8.0 17.7 0.00 1.45 1.45 79 1010.0
20260507182009 18 68 8.0 17.7 0.00 1.45 1.45 79 1010.1
20260507181907 18 277 6.4 17.7 0.00 1.45 1.45 79 1010.2
20260507181807 18 81 6.4 17.7 0.00 1.45 1.45 79 1010.2
20260507181708 18 21 6.4 17.7 0.00 1.45 1.45 79 1010.0
20260507181607 18 32 8.0 17.7 0.00 1.45 1.45 79 1010.0
20260507181509 18 93 8.0 17.7 0.00 1.45 1.45 79 1010.0
20260507181407 18 13 8.0 17.7 0.00 1.45 1.45 79 1010.1
20260507181306 18 342 8.0 17.7 0.00 1.45 1.45 79 1010.0
20260507181207 18 42 8.0 17.7 0.00 1.45 1.45 79 1010.0
20260507181107 18 68 8.0 17.7 0.00 1.45 1.45 79 1010.0
20260507181009 18 32 8.0 17.7 0.00 1.45 1.45 79 1010.0
20260507180908 18 56 8.0 17.7 0.00 1.45 1.45 79 1010.0
20260507180807 18 39 8.0 17.7 0.00 1.45 1.45 79 1009.9
20260507180710 18 19 8.0 17.7 0.00 1.45 1.45 79 1009.9
20260507180607 18 73 8.0 17.7 0.00 1.45 1.45 79 1009.9
20260507180407 18 46 6.4 17.7 0.00 1.45 1.45 79 1009.9
20260507180308 18 52 6.4 17.7 0.00 1.45 1.45 79 1009.9
20260507180207 18 39 6.4 17.7 0.00 1.45 1.45 79 1009.9
20260507180109 18 51 6.4 17.7 0.00 1.45 1.45 79 1009.9
20260507180008 18 32 4.8 17.7 0.00 1.45 1.45 79 1010.0
20260507175906 18 6 6.4 17.7 0.00 1.45 1.45 79 1009.9
20260507175806 18 355 6.4 17.7 0.00 1.45 1.45 78 1009.9
20260507175511 18 57 6.4 17.7 0.00 1.45 1.45 78 1010.0
20260507175307 18 59 4.8 16.1 0.00 1.45 1.45 78 1009.9
20260507175108 18 33 6.4 14.5 0.00 1.45 1.45 78 1009.9
20260507174906 18 35 6.4 14.5 0.00 1.45 1.45 78 1010.0
20260507174805 18 69 6.4 14.5 0.00 1.45 1.45 78 1009.9
20260507174705 18 59 6.4 14.5 0.00 1.45 1.45 78 1009.9
20260507174605 18 75 6.4 14.5 0.00 1.45 1.45 78 1010.0
20260507174513 18 37 4.8 14.5 0.00 1.45 1.45 78 1009.9
20260507174406 18 34 4.8 14.5 0.00 1.45 1.45 78 1009.9
20260507174305 18 335 4.8 14.5 0.00 1.45 1.45 78 1009.9
20260507174207 18 70 4.8 14.5 0.00 1.45 1.45 78 1010.0
20260507174107 18 32 4.8 14.5 0.00 1.45 1.45 78 1009.9
20260507174008 18 325 4.8 14.5 0.00 1.45 1.45 78 1009.9
20260507173906 18 68 3.2 12.9 0.00 1.45 1.45 78 1009.9
20260507173805 18 67 4.8 12.9 0.00 1.45 1.45 78 1010.0
20260507173706 18 35 4.8 12.9 0.00 1.45 1.45 78 1010.0
20260507173606 18 60 4.8 16.1 0.00 1.45 1.45 78 1009.9
20260507173507 18 42 4.8 16.1 0.00 1.45 1.45 78 1010.0
20260507173406 18 109 4.8 16.1 0.00 1.45 1.45 78 1009.9
20260507173306 18 321 4.8 16.1 0.00 1.45 1.45 78 1009.9
20260507173205 18 308 4.8 16.1 0.00 1.45 1.45 78 1010.0
20260507173107 18 16 4.8 16.1 0.00 1.45 1.45 78 1009.9
20260507173010 18 8 4.8 16.1 0.00 1.45 1.45 78 1010.0
20260507172908 18 53 6.4 16.1 0.00 1.45 1.45 78 1009.9
20260507172806 18 53 6.4 16.1 0.00 1.45 1.45 78 1009.9
20260507172508 18 60 6.4 16.1 0.00 1.45 1.45 78 1009.9
20260507172205 18 69 6.4 16.1 0.00 1.45 1.45 78 1009.9
20260507172106 18 41 6.4 16.1 0.00 1.45 1.45 78 1009.9
20260507172008 18 76 6.4 16.1 0.00 1.45 1.45 78 1009.9
20260507171907 18 31 6.4 16.1 0.00 1.45 1.45 78 1009.9
20260507171705 18 80 6.4 16.1 0.00 1.45 1.45 78 1009.8
20260507171607 18 81 6.4 16.1 0.00 1.45 1.45 78 1009.9
20260507171509 18 48 6.4 16.1 0.00 1.45 1.45 78 1009.9
20260507171406 18 37 6.4 16.1 0.00 1.45 1.45 78 1009.8
20260507171305 18 6 6.4 16.1 0.00 1.45 1.45 78 1009.9
20260507171206 18 25 4.8 16.1 0.00 1.45 1.45 78 1009.9
20260507171106 18 68 4.8 14.5 0.00 1.45 1.45 78 1009.8
20260507171008 18 49 4.8 14.5 0.00 1.45 1.45 78 1009.8
20260507170906 18 94 6.4 14.5 0.00 1.45 1.45 78 1009.9
20260507170705 18 12 4.8 14.5 0.00 1.45 1.45 78 1009.8
20260507170407 18 9 4.8 12.9 0.00 1.45 1.45 77 1009.7
20260507170307 18 50 4.8 12.9 0.00 1.45 1.45 77 1009.8
20260507170206 18 58 4.8 12.9 0.00 1.45 1.45 77 1009.8
20260507170009 18 29 4.8 12.9 0.00 1.45 1.45 77 1009.8
20260507165905 18 60 4.8 12.9 0.00 1.45 1.45 77 1009.8
20260507165806 18 25 4.8 11.3 0.00 1.45 1.45 77 1009.8
20260507165706 18 38 3.2 11.3 0.00 1.45 1.45 77 1009.8
20260507165606 18 46 3.2 11.3 0.00 1.45 1.45 77 1009.8
20260507165507 18 20 3.2 11.3 0.00 1.45 1.45 77 1009.8
20260507165307 18 37 3.2 11.3 0.00 1.45 1.45 77 1009.8
20260507165026 18 13 4.8 11.3 0.00 1.45 1.45 77 1009.7
20260507164916 18 62 4.8 11.3 0.00 1.45 1.45 77 1009.7
20260507164806 18 325 4.8 11.3 0.00 1.45 1.45 77 1009.7
20260507164719 18 29 4.8 11.3 0.00 1.45 1.45 77 1009.7
20260507164523 18 29 4.8 11.3 0.00 1.45 1.45 77 1009.7
20260507164420 18 18 4.8 11.3 0.00 1.45 1.45 77 1009.7
20260507164307 18 20 4.8 9.7 0.00 1.45 1.45 76 1009.7
20260507164207 18 31 3.2 9.7 0.00 1.45 1.45 76 1009.7
20260507164112 18 62 3.2 8.0 0.00 1.45 1.45 77 1009.7
20260507164011 18 62 3.2 8.0 0.00 1.45 1.45 77 1009.7
20260507163908 18 27 3.2 9.7 0.00 1.45 1.45 77 1009.7
20260507163811 18 64 3.2 11.3 0.00 1.45 1.45 77 1009.7
20260507163712 18 305 3.2 11.3 0.00 1.45 1.45 77 1009.7
20260507163605 18 13 3.2 11.3 0.00 1.45 1.45 77 1009.6
20260507163513 18 56 3.2 11.3 0.00 1.45 1.45 77 1009.7
20260507163411 18 81 3.2 11.3 0.00 1.45 1.45 77 1009.7
20260507163310 18 27 3.2 11.3 0.00 1.45 1.45 77 1009.6
20260507163205 18 26 4.8 11.3 0.00 1.45 1.45 77 1009.7
20260507163107 18 315 4.8 11.3 0.00 1.45 1.45 77 1009.7
20260507163012 18 59 3.2 9.7 0.00 1.45 1.45 77 1009.7
20260507162905 18 39 3.2 9.7 0.00 1.45 1.45 77 1009.7
20260507162817 18 29 3.2 9.7 0.00 1.45 1.45 77 1009.6
20260507162706 18 71 3.2 9.7 0.00 1.45 1.45 77 1009.7
20260507162612 18 44 3.2 9.7 0.00 1.45 1.45 77 1009.7
20260507162511 18 51 3.2 9.7 0.00 1.45 1.45 77 1009.7
20260507162421 18 37 1.6 9.7 0.00 1.45 1.45 77 1009.7
20260507162313 18 50 3.2 6.4 0.00 1.45 1.45 77 1009.7
20260507162219 18 45 1.6 9.7 0.00 1.45 1.45 77 1009.6
20260507162121 18 31 1.6 14.5 0.00 1.45 1.45 77 1009.6
20260507161921 18 51 1.6 14.5 0.00 1.45 1.45 77 1009.5
20260507161712 18 304 1.6 14.5 0.00 1.45 1.45 78 1009.5
20260507161516 18 335 3.2 14.5 0.00 1.45 1.45 78 1009.5
20260507161414 18 48 3.2 14.5 0.00 1.45 1.45 78 1009.4
20260507161321 18 67 3.2 14.5 0.00 1.45 1.45 78 1009.4
20260507161218 18 358 4.8 12.9 0.00 1.45 1.45 78 1009.4
20260507161010 18 316 6.4 12.9 0.00 1.45 1.45 78 1009.4
20260507160819 18 271 8.0 16.1 0.00 1.45 1.45 78 1009.4
20260507160707 18 319 8.0 16.1 0.00 1.45 1.45 77 1009.3
20260507160619 18 72 9.7 16.1 0.00 1.45 1.45 77 1009.3
20260507160420 18 64 9.7 16.1 0.00 1.45 1.45 77 1009.4
20260507160305 18 46 9.7 17.7 0.00 1.45 1.45 77 1009.4
20260507160206 18 7 11.3 17.7 0.00 1.45 1.45 77 1009.4
20260507160107 18 58 11.3 17.7 0.00 1.45 1.45 77 1009.3
20260507155807 18 49 11.3 17.7 0.00 1.45 1.45 76 1009.2
20260507155720 18 56 11.3 17.7 0.00 1.45 1.45 76 1009.1
20260507155607 18 62 11.3 17.7 0.00 1.45 1.45 76 1009.2
20260507155514 18 360 9.7 17.7 0.00 1.45 1.45 75 1009.1
20260507155407 18 65 9.7 17.7 0.00 1.45 1.45 75 1009.1
20260507155306 18 73 8.0 17.7 0.00 1.45 1.45 75 1009.1
20260507155206 18 48 8.0 17.7 0.00 1.45 1.45 75 1009.1
20260507155106 18 64 8.0 17.7 0.00 1.45 1.45 76 1009.1
20260507155010 18 51 6.4 16.1 0.00 1.45 1.45 76 1009.1
20260507154906 18 39 6.4 14.5 0.00 1.45 1.45 76 1009.1
20260507154806 18 62 4.8 14.5 0.00 1.45 1.45 76 1009.1
20260507154705 18 102 4.8 14.5 0.00 1.45 1.45 76 1009.0
20260507154606 18 46 4.8 14.5 0.00 1.45 1.45 76 1009.0
20260507154507 18 88 4.8 14.5 0.00 1.45 1.45 76 1009.0
20260507154405 18 55 4.8 14.5 0.00 1.45 1.45 76 1009.0
20260507154307 18 106 4.8 14.5 0.00 1.45 1.45 76 1009.0
20260507154009 18 41 4.8 12.9 0.00 1.45 1.45 77 1008.9
20260507153807 18 8 6.4 14.5 0.00 1.45 1.45 77 1009.0
20260507153705 18 25 6.4 14.5 0.00 1.45 1.45 77 1009.0
20260507153608 18 318 6.4 14.5 0.00 1.45 1.45 77 1008.9
20260507153509 18 308 6.4 14.5 0.00 1.45 1.45 77 1008.9
20260507153406 18 4 6.4 14.5 0.00 1.45 1.45 77 1008.9
20260507153305 18 52 6.4 14.5 0.00 1.45 1.45 77 1008.9
20260507153206 18 69 6.4 14.5 0.00 1.45 1.45 77 1009.0
20260507153107 18 75 6.4 14.5 0.00 1.45 1.45 77 1008.9
20260507153007 18 44 4.8 14.5 0.00 1.45 1.45 77 1008.9
20260507152906 18 64 6.4 14.5 0.00 1.45 1.45 77 1008.9
20260507152806 18 341 6.4 14.5 0.00 1.45 1.45 77 1009.0
20260507152606 18 308 6.4 16.1 0.00 1.45 1.45 77 1009.0
20260507152509 18 346 6.4 16.1 0.00 1.45 1.45 77 1008.9
20260507152306 18 72 6.4 16.1 0.00 1.45 1.45 78 1008.9
20260507152205 18 39 8.0 16.1 0.00 1.45 1.45 78 1009.0
20260507152106 18 25 6.4 16.1 0.00 1.45 1.45 78 1008.9
20260507152010 18 11 6.4 16.1 0.00 1.45 1.45 78 1008.9
20260507151807 18 46 8.0 16.1 0.00 1.45 1.45 77 1008.9
20260507151707 18 67 8.0 16.1 0.00 1.45 1.45 77 1008.9
20260507151409 18 78 8.0 19.3 0.00 1.45 1.45 78 1008.9
20260507151306 18 32 9.7 19.3 0.00 1.45 1.45 78 1009.0
20260507151206 18 10 9.7 20.9 0.00 1.45 1.45 78 1009.0
20260507151107 18 118 9.7 20.9 0.00 1.45 1.45 78 1009.0
20260507151008 18 293 9.7 20.9 0.00 1.45 1.45 78 1009.0
20260507150905 18 73 11.3 20.9 0.00 1.45 1.45 78 1009.1
20260507150806 18 1 11.3 20.9 0.00 1.45 1.45 78 1009.0
20260507150707 18 56 11.3 20.9 0.00 1.45 1.45 78 1009.0
20260507150607 18 49 11.3 20.9 0.00 1.45 1.45 78 1009.1
20260507150510 18 49 11.3 20.9 0.00 1.45 1.45 78 1009.2
20260507150207 18 55 11.3 19.3 0.00 1.45 1.45 78 1009.1
20260507150106 18 37 12.9 19.3 0.00 1.45 1.45 78 1009.2
20260507150017 18 54 12.9 19.3 0.00 1.45 1.45 78 1009.2
20260507145907 18 59 12.9 19.3 0.00 1.45 1.45 78 1009.2
20260507145808 18 60 12.9 19.3 0.00 1.45 1.45 78 1009.2
20260507145707 18 57 12.9 19.3 0.00 1.45 1.45 78 1009.3
20260507145606 18 54 14.5 19.3 0.00 1.45 1.45 78 1009.3
20260507145507 18 49 14.5 19.3 0.00 1.45 1.45 77 1009.3
20260507145406 18 108 14.5 20.9 0.00 1.45 1.45 77 1009.3
20260507145307 18 62 14.5 20.9 0.00 1.45 1.45 77 1009.3
20260507145206 18 50 14.5 20.9 0.00 1.45 1.45 77 1009.3
20260507145109 18 64 14.5 20.9 0.00 1.45 1.45 77 1009.3
20260507145009 18 83 14.5 20.9 0.00 1.45 1.45 77 1009.3
20260507144906 18 58 14.5 20.9 0.00 1.45 1.45 77 1009.3
20260507144707 18 56 14.5 20.9 0.00 1.45 1.45 77 1009.4
20260507144606 18 51 14.5 20.9 0.00 1.45 1.45 77 1009.3
20260507144507 18 61 12.9 20.9 0.00 1.45 1.45 77 1009.4
20260507144405 18 62 14.5 19.3 0.00 1.45 1.45 78 1009.5
20260507144306 18 56 14.5 19.3 0.00 1.45 1.45 78 1009.5
20260507144205 18 52 14.5 19.3 0.00 1.45 1.45 78 1009.4
20260507144107 18 355 14.5 20.9 0.00 1.45 1.45 78 1009.4
20260507143905 18 54 14.5 20.9 0.00 1.45 1.45 78 1009.4
20260507143805 18 61 14.5 20.9 0.00 1.45 1.45 78 1009.3
20260507143605 18 75 14.5 20.9 0.00 1.45 1.45 78 1009.3
20260507143509 18 44 16.1 20.9 0.00 1.45 1.45 78 1009.3
20260507143407 18 24 16.1 20.9 0.00 1.45 1.45 78 1009.3
20260507143307 18 68 16.1 20.9 0.00 1.45 1.45 78 1009.4
20260507143207 18 63 14.5 20.9 0.00 1.45 1.45 77 1009.3
20260507143106 18 53 14.5 20.9 0.00 1.45 1.45 77 1009.3
20260507143008 18 17 14.5 20.9 0.00 1.45 1.45 77 1009.3
20260507142907 18 71 14.5 20.9 0.00 1.45 1.45 77 1009.3
20260507142807 18 41 14.5 20.9 0.00 1.45 1.45 77 1009.3
20260507142707 18 27 14.5 20.9 0.00 1.45 1.45 77 1009.2
20260507142605 18 54 14.5 20.9 0.00 1.45 1.45 77 1009.3
20260507142406 18 48 12.9 20.9 0.00 1.45 1.45 77 1009.3
20260507142308 18 46 12.9 20.9 0.00 1.45 1.45 77 1009.3
20260507142106 18 55 12.9 20.9 0.00 1.45 1.45 77 1009.4
20260507142012 18 37 12.9 20.9 0.00 1.45 1.45 77 1009.4
20260507141907 18 48 11.3 20.9 0.00 1.45 1.45 77 1009.5
20260507141805 18 56 11.3 19.3 0.00 1.45 1.45 77 1009.6
20260507141706 18 39 11.3 19.3 0.00 1.45 1.45 78 1009.6
20260507141607 18 74 12.9 20.9 0.00 1.45 1.45 78 1009.6
20260507141509 18 127 12.9 20.9 0.00 1.45 1.45 78 1009.6
20260507141406 18 69 12.9 20.9 0.00 1.45 1.45 78 1009.7
20260507141306 18 56 12.9 20.9 0.00 1.45 1.45 78 1009.7
20260507141207 18 63 12.9 20.9 0.00 1.45 1.45 77 1009.7
20260507141108 18 58 14.5 20.9 0.00 1.45 1.45 78 1009.6
20260507141007 18 70 14.5 20.9 0.00 1.45 1.45 77 1009.7
20260507140905 18 67 14.5 20.9 0.00 1.45 1.45 77 1009.6
20260507140805 18 49 14.5 20.9 0.00 1.45 1.45 77 1009.6
20260507140706 18 61 14.5 20.9 0.00 1.45 1.45 77 1009.7
20260507140508 18 53 14.5 20.9 0.00 1.45 1.45 76 1009.7
20260507140306 18 287 14.5 20.9 0.00 1.45 1.45 76 1009.7
20260507140205 18 56 14.5 20.9 0.00 1.45 1.45 77 1009.7
20260507140106 18 64 14.5 20.9 0.00 1.45 1.45 77 1009.7
20260507140011 18 67 14.5 20.9 0.00 1.45 1.45 77 1009.7
20260507135908 18 63 14.5 20.9 0.00 1.45 1.45 77 1009.6
20260507135809 18 56 14.5 20.9 0.00 1.45 1.45 77 1009.7
20260507135707 18 62 14.5 22.5 0.00 1.45 1.45 77 1009.7
20260507135509 18 39 16.1 22.5 0.00 1.45 1.45 76 1009.6
20260507135407 18 31 16.1 22.5 0.00 1.45 1.45 76 1009.7
20260507135309 18 35 16.1 24.1 0.00 1.45 1.45 77 1009.7
20260507135107 18 54 16.1 25.7 0.00 1.45 1.45 76 1009.7
20260507135009 18 47 16.1 25.7 0.00 1.45 1.45 76 1009.7
20260507134907 18 88 17.7 25.7 0.00 1.45 1.45 76 1009.6
20260507134807 18 76 17.7 25.7 0.00 1.45 1.45 76 1009.6
20260507134509 18 66 16.1 25.7 0.00 1.45 1.45 76 1009.7
20260507134408 18 108 16.1 25.7 0.00 1.45 1.45 76 1009.7
20260507134307 18 54 14.5 24.1 0.00 1.45 1.45 75 1009.7
20260507134209 18 66 14.5 24.1 0.00 1.45 1.45 75 1009.7
20260507134108 18 58 14.5 24.1 0.00 1.45 1.45 75 1009.7
20260507134011 18 46 14.5 24.1 0.00 1.45 1.45 75 1009.7
20260507133907 18 64 14.5 24.1 0.00 1.45 1.45 75 1009.7
20260507133808 18 33 14.5 24.1 0.00 1.45 1.45 75 1009.8
20260507133707 18 16 14.5 24.1 0.00 1.45 1.45 75 1009.8
20260507133607 18 33 14.5 24.1 0.00 1.45 1.45 76 1009.7
20260507133508 18 79 16.1 24.1 0.00 1.45 1.45 76 1009.7
20260507133407 18 41 16.1 24.1 0.00 1.45 1.45 76 1009.8
20260507133308 18 46 17.7 24.1 0.00 1.45 1.45 75 1009.7
20260507133207 18 77 17.7 24.1 0.00 1.45 1.45 75 1009.8
20260507133106 18 72 16.1 24.1 0.00 1.45 1.45 76 1009.8
20260507133009 18 56 16.1 24.1 0.00 1.45 1.45 76 1009.8
20260507132907 18 44 16.1 24.1 0.00 1.45 1.45 76 1009.8
20260507132807 18 34 16.1 24.1 0.00 1.45 1.45 76 1009.9
20260507132607 18 95 16.1 24.1 0.00 1.45 1.45 75 1009.9
20260507132508 18 55 16.1 24.1 0.00 1.45 1.45 75 1009.9
20260507132307 18 46 16.1 24.1 0.00 1.45 1.45 75 1009.8
20260507132207 18 82 16.1 24.1 0.00 1.45 1.45 75 1009.8
20260507132107 18 52 16.1 25.7 0.00 1.45 1.45 75 1009.8
20260507132010 18 174 16.1 25.7 0.00 1.45 1.45 75 1009.8
20260507131906 18 42 16.1 25.7 0.00 1.45 1.45 76 1009.8
20260507131707 18 64 16.1 25.7 0.00 1.45 1.45 75 1009.8
20260507131607 18 347 16.1 25.7 0.00 1.45 1.45 75 1009.8
20260507131508 18 62 17.7 25.7 0.00 1.45 1.45 75 1009.8
20260507131407 18 74 17.7 27.4 0.00 1.45 1.45 75 1009.9
20260507131309 18 59 17.7 27.4 0.00 1.45 1.45 75 1009.9
20260507131208 18 64 17.7 27.4 0.00 1.45 1.45 75 1009.9
20260507131010 18 81 16.1 27.4 0.00 1.45 1.45 76 1009.9
20260507130908 18 57 16.1 27.4 0.00 1.45 1.45 76 1009.9
20260507130708 18 78 16.1 27.4 0.00 1.45 1.45 76 1010.0
20260507130606 18 53 16.1 27.4 0.00 1.45 1.45 76 1010.0
20260507130509 18 44 16.1 27.4 0.00 1.45 1.45 76 1010.0
20260507130407 18 52 16.1 27.4 0.00 1.45 1.45 76 1010.0
20260507130307 18 62 16.1 25.7 0.00 1.45 1.45 77 1010.0
20260507130206 18 66 16.1 25.7 0.00 1.45 1.45 78 1010.0
20260507130108 18 72 16.1 25.7 0.00 1.45 1.45 78 1010.0
20260507130010 18 65 16.1 25.7 0.00 1.45 1.45 78 1010.0
20260507125805 18 59 17.7 25.7 0.00 1.45 1.45 78 1010.1
20260507125708 18 353 17.7 25.7 0.00 1.45 1.45 79 1010.1
20260507125509 18 50 19.3 25.7 0.00 1.45 1.45 79 1010.2
20260507125407 18 50 19.3 25.7 0.00 1.45 1.45 79 1010.1
20260507125207 18 75 17.7 25.7 0.00 1.45 1.45 79 1010.0
20260507125106 18 56 17.7 25.7 0.00 1.45 1.45 79 1010.1
20260507125007 18 74 17.7 25.7 0.00 1.45 1.45 79 1010.1
20260507124706 18 47 16.1 25.7 0.00 1.45 1.45 78 1010.1
20260507124608 18 58 14.5 25.7 0.00 1.45 1.45 78 1010.1
20260507124510 18 62 12.9 25.7 0.00 1.45 1.45 78 1010.1
20260507124407 18 66 12.9 25.7 0.00 1.45 1.45 77 1010.2
20260507124306 18 37 11.3 20.9 0.00 1.45 1.45 76 1010.1
20260507124207 18 55 11.3 20.9 0.00 1.45 1.45 76 1010.2
20260507124105 18 64 11.3 20.9 0.00 1.45 1.45 76 1010.2
20260507124008 18 62 11.3 20.9 0.00 1.45 1.45 76 1010.3
20260507123906 18 85 11.3 19.3 0.00 1.45 1.45 76 1010.3
20260507123808 18 81 11.3 19.3 0.00 1.45 1.45 76 1010.3
20260507123607 18 62 11.3 19.3 0.00 1.45 1.45 77 1010.3
20260507123406 18 75 11.3 19.3 0.00 1.45 1.45 76 1010.3
20260507123308 18 54 11.3 19.3 0.00 1.45 1.45 76 1010.4
20260507123107 18 76 11.3 19.3 0.00 1.45 1.45 76 1010.3
20260507123007 18 60 11.3 17.7 0.00 1.45 1.45 76 1010.3
20260507122906 18 49 12.9 17.7 0.00 1.45 1.45 76 1010.3
20260507122806 18 44 12.9 17.7 0.00 1.45 1.45 76 1010.3
20260507122606 18 60 12.9 17.7 0.00 1.45 1.45 76 1010.3
20260507122507 18 50 12.9 19.3 0.00 1.45 1.45 77 1010.3
20260507122407 18 65 12.9 19.3 0.00 1.45 1.45 77 1010.3
20260507122308 18 53 12.9 19.3 0.00 1.45 1.45 77 1010.3
20260507122205 18 52 12.9 19.3 0.00 1.45 1.45 77 1010.3
20260507122105 18 62 12.9 19.3 0.00 1.45 1.45 77 1010.3
20260507122009 18 79 14.5 19.3 0.00 1.45 1.45 77 1010.3
20260507121906 18 55 12.9 19.3 0.00 1.45 1.45 76 1010.3
20260507121806 18 62 12.9 19.3 0.00 1.45 1.45 77 1010.3
20260507121606 18 38 12.9 19.3 0.00 1.45 1.45 77 1010.4
20260507121406 18 52 12.9 19.3 0.00 1.45 1.45 77 1010.4
20260507121307 18 59 12.9 19.3 0.00 1.45 1.45 77 1010.4
20260507121207 18 67 12.9 19.3 0.00 1.45 1.45 77 1010.4
20260507121017 18 62 12.9 20.9 0.00 1.45 1.45 77 1010.3
20260507120907 18 69 12.9 20.9 0.00 1.45 1.45 77 1010.4
20260507120807 18 58 12.9 20.9 0.00 1.45 1.45 77 1010.4
20260507120606 18 56 12.9 20.9 0.00 1.45 1.45 77 1010.4
20260507120509 18 75 12.9 20.9 0.00 1.45 1.45 77 1010.3
20260507120405 18 38 12.9 20.9 0.00 1.45 1.45 77 1010.3
20260507120308 18 43 12.9 20.9 0.00 1.45 1.45 77 1010.4
20260507120207 18 33 14.5 20.9 0.00 1.45 1.45 77 1010.4
20260507120107 18 35 12.9 20.9 0.00 1.45 1.45 77 1010.4
20260507120012 18 65 12.9 20.9 0.00 1.45 1.45 78 1010.4
20260507115907 18 53 14.5 20.9 0.00 1.45 1.45 78 1010.4
20260507115807 18 58 14.5 20.9 0.00 1.45 1.45 78 1010.5
20260507115707 18 70 14.5 20.9 0.00 1.45 1.45 78 1010.4
20260507115408 18 62 14.5 20.9 0.00 1.45 1.45 78 1010.4
20260507115307 18 40 16.1 20.9 0.00 1.45 1.45 79 1010.5
20260507115209 18 66 16.1 20.9 0.00 1.45 1.45 78 1010.5
20260507115106 18 32 14.5 20.9 0.00 1.45 1.45 78 1010.5
20260507115008 18 48 16.1 20.9 0.00 1.45 1.45 78 1010.5
20260507114807 18 58 16.1 22.5 0.00 1.45 1.45 78 1010.6
20260507114706 18 64 16.1 22.5 0.00 1.45 1.45 79 1010.5
20260507114605 18 62 16.1 22.5 0.00 1.45 1.45 79 1010.5
20260507114508 18 59 14.5 22.5 0.00 1.45 1.45 79 1010.7
20260507114307 18 47 16.1 22.5 0.00 1.45 1.45 79 1010.7
20260507114105 18 57 14.5 22.5 0.00 1.45 1.45 79 1010.7
20260507114008 18 52 14.5 22.5 0.00 1.45 1.45 79 1010.8
20260507113908 18 61 14.5 22.5 0.00 1.45 1.45 79 1010.7
20260507113806 18 57 14.5 22.5 0.00 1.45 1.45 79 1010.6
20260507113707 18 56 12.9 22.5 0.00 1.45 1.45 79 1010.7
20260507113608 18 55 12.9 22.5 0.00 1.45 1.45 80 1010.7
20260507113406 18 60 12.9 22.5 0.00 1.45 1.45 80 1010.7
20260507113306 18 42 12.9 22.5 0.00 1.45 1.45 80 1010.8
20260507113205 18 59 12.9 22.5 0.00 1.45 1.45 80 1010.8
20260507113108 18 28 12.9 22.5 0.00 1.45 1.45 80 1010.7
20260507112907 18 50 12.9 24.1 0.03 1.45 1.45 81 1010.8
20260507112809 18 111 12.9 24.1 0.03 1.45 1.45 81 1010.9
20260507112707 18 68 12.9 24.1 0.05 1.45 1.45 81 1010.9
20260507112606 18 51 12.9 24.1 0.05 1.45 1.45 81 1010.8
20260507112508 18 52 12.9 24.1 0.08 1.45 1.45 81 1010.9
20260507112407 18 70 12.9 24.1 0.13 1.45 1.45 81 1011.0
20260507112307 18 68 12.9 24.1 0.18 1.45 1.45 82 1011.0
20260507112205 18 85 14.5 24.1 0.25 1.45 1.45 82 1011.0
20260507112009 18 44 14.5 22.5 0.51 1.45 1.45 82 1011.2
20260507111907 18 43 14.5 22.5 0.56 1.45 1.45 82 1011.2
20260507111805 18 48 14.5 22.5 0.76 1.45 1.45 82 1011.2
20260507111707 17 83 14.5 22.5 0.99 1.45 1.45 82 1011.2
20260507111607 17 68 14.5 22.5 0.99 1.45 1.45 82 1011.2
20260507111509 17 35 14.5 22.5 1.09 1.45 1.45 82 1011.2
20260507111407 17 87 14.5 22.5 1.14 1.45 1.45 83 1011.1
20260507111206 17 66 14.5 22.5 1.24 1.45 1.45 83 1011.2
20260507111009 17 83 14.5 20.9 1.32 1.45 1.45 83 1011.3
20260507110907 17 27 14.5 20.9 1.37 1.45 1.45 83 1011.3
20260507110807 17 62 14.5 20.9 1.37 1.45 1.45 83 1011.3
20260507110708 17 61 14.5 20.9 1.40 1.45 1.45 83 1011.2
20260507110608 17 51 14.5 20.9 1.40 1.45 1.45 83 1011.2
20260507110306 17 46 14.5 20.9 1.45 1.45 1.45 83 1011.3
20260507110107 17 64 14.5 20.9 1.45 1.45 1.45 84 1011.3
20260507110011 17 58 14.5 20.9 1.45 1.45 1.45 84 1011.2
20260507105907 17 68 14.5 20.9 1.45 1.45 1.45 84 1011.3
20260507105806 17 50 14.5 20.9 1.45 1.45 1.45 84 1011.3
20260507105706 17 68 14.5 20.9 1.45 1.45 1.45 84 1011.3
20260507105610 17 65 14.5 20.9 1.45 1.45 1.45 84 1011.2
20260507105508 17 60 12.9 19.3 1.45 1.45 1.45 84 1011.3
20260507105406 17 62 12.9 19.3 1.45 1.45 1.45 84 1011.3
20260507105307 17 75 11.3 19.3 1.45 1.45 1.45 84 1011.2
20260507105205 17 58 11.3 19.3 1.45 1.45 1.45 85 1011.2
20260507105105 17 44 9.7 19.3 1.45 1.45 1.45 85 1011.2
20260507104808 17 62 6.4 19.3 1.45 1.45 1.45 85 1011.1
20260507104707 17 63 4.8 19.3 1.45 1.45 1.45 86 1011.1
20260507104607 17 66 4.8 17.7 1.45 1.45 1.45 86 1011.1
20260507104507 17 39 4.8 17.7 1.45 1.45 1.45 86 1011.1
20260507104407 17 54 3.2 17.7 1.45 1.45 1.45 86 1011.2
20260507104307 17 14 3.2 11.3 1.45 1.45 1.45 87 1011.1
20260507104207 17 14 3.2 11.3 1.45 1.45 1.45 87 1011.1
20260507104106 17 21 3.2 9.7 1.45 1.45 1.45 87 1011.1
20260507104012 17 78 3.2 9.7 1.45 1.45 1.45 87 1011.1
20260507103908 17 32 3.2 12.9 1.45 1.45 1.45 87 1011.1
20260507103806 17 7 3.2 12.9 1.45 1.45 1.45 87 1011.2
20260507103706 17 335 3.2 12.9 1.45 1.45 1.45 87 1011.2
20260507103508 17 70 3.2 12.9 1.45 1.45 1.45 86 1011.2
20260507103406 17 60 3.2 12.9 1.45 1.45 1.45 86 1011.1
20260507103205 17 56 4.8 12.9 1.45 1.45 1.45 86 1011.1
20260507103107 16 50 3.2 12.9 1.45 1.45 1.45 86 1011.1
20260507103009 16 53 3.2 9.7 1.45 1.45 1.45 85 1011.1
20260507102907 16 10 3.2 9.7 1.45 1.45 1.45 85 1011.0
20260507102807 16 47 4.8 9.7 1.45 1.45 1.45 85 1011.1
20260507102507 16 287 4.8 12.9 1.37 1.37 1.37 84 1011.1
20260507102406 17 345 4.8 12.9 1.35 1.35 1.35 84 1011.2
20260507102205 17 312 6.4 12.9 1.19 1.19 1.19 84 1011.2
20260507102105 17 290 6.4 12.9 1.09 1.09 1.09 84 1011.2
20260507101707 17 53 9.7 19.3 0.46 0.46 0.46 83 1011.3
20260507101607 17 71 9.7 19.3 0.41 0.41 0.41 83 1011.3
20260507101507 17 58 11.3 19.3 0.36 0.36 0.36 83 1011.2
20260507101406 17 78 11.3 19.3 0.33 0.33 0.33 83 1011.2
20260507101207 17 123 11.3 19.3 0.23 0.23 0.23 82 1011.2
20260507101107 17 73 11.3 19.3 0.20 0.20 0.20 82 1011.2
20260507101010 17 9 9.7 19.3 0.15 0.15 0.15 81 1011.3
20260507100907 17 54 9.7 19.3 0.10 0.10 0.10 81 1011.2
20260507100708 18 64 6.4 19.3 0.05 0.05 0.05 80 1011.1
20260507100606 18 54 6.4 19.3 0.05 0.05 0.05 79 1011.2
20260507100509 18 70 6.4 17.7 0.03 0.03 0.03 79 1011.2
20260507100305 18 41 4.8 14.5 0.00 0.00 0.00 78 1011.2
20260507100207 18 330 6.4 12.9 0.00 0.00 0.00 78 1011.2
20260507100107 18 141 6.4 14.5 0.00 0.00 0.00 78 1011.2
20260507100009 18 48 6.4 14.5 0.00 0.00 0.00 78 1011.3
20260507095906 18 344 6.4 14.5 0.00 0.00 0.00 78 1011.3
20260507095713 18 62 6.4 14.5 0.00 0.00 0.00 77 1011.2
20260507095605 18 44 6.4 14.5 0.00 0.00 0.00 77 1011.4
20260507095508 18 82 6.4 14.5 0.00 0.00 0.00 76 1011.3
20260507095406 18 55 4.8 14.5 0.00 0.00 0.00 76 1011.4
20260507095207 18 61 4.8 11.3 0.00 0.00 0.00 76 1011.4
20260507095107 18 80 4.8 11.3 0.00 0.00 0.00 76 1011.4
20260507094906 18 48 6.4 11.3 0.00 0.00 0.00 76 1011.4
20260507094808 18 91 6.4 11.3 0.00 0.00 0.00 76 1011.3
20260507094705 18 87 6.4 11.3 0.00 0.00 0.00 76 1011.4
20260507094509 18 36 6.4 12.9 0.00 0.00 0.00 76 1011.3
20260507094405 18 50 8.0 12.9 0.00 0.00 0.00 76 1011.4
20260507094306 18 71 8.0 12.9 0.00 0.00 0.00 76 1011.4
20260507094206 18 63 8.0 12.9 0.00 0.00 0.00 76 1011.4
20260507094106 18 83 8.0 12.9 0.00 0.00 0.00 75 1011.4
20260507094010 18 77 8.0 12.9 0.00 0.00 0.00 75 1011.4
20260507093906 18 77 6.4 12.9 0.00 0.00 0.00 75 1011.4
20260507093806 18 54 6.4 12.9 0.00 0.00 0.00 74 1011.4
20260507093705 18 60 6.4 12.9 0.00 0.00 0.00 74 1011.4
20260507093606 18 54 4.8 12.9 0.00 0.00 0.00 74 1011.3
20260507093509 18 53 4.8 12.9 0.00 0.00 0.00 74 1011.4
20260507093407 18 60 4.8 11.3 0.00 0.00 0.00 73 1011.3
20260507093208 18 46 4.8 11.3 0.00 0.00 0.00 73 1011.3
20260507093107 18 70 3.2 11.3 0.00 0.00 0.00 73 1011.4
20260507092909 18 29 3.2 12.9 0.00 0.00 0.00 73 1011.4
20260507092808 18 76 3.2 12.9 0.00 0.00 0.00 73 1011.3
20260507092607 18 94 3.2 12.9 0.00 0.00 0.00 73 1011.4
20260507092507 18 94 3.2 12.9 0.00 0.00 0.00 73 1011.4
20260507092407 18 212 3.2 12.9 0.00 0.00 0.00 73 1011.4
20260507092310 18 79 3.2 12.9 0.00 0.00 0.00 72 1011.4
20260507092212 18 67 1.6 12.9 0.00 0.00 0.00 72 1011.4
20260507092106 18 51 1.6 11.3 0.00 0.00 0.00 73 1011.5
20260507091907 18 28 1.6 6.4 0.00 0.00 0.00 73 1011.4
20260507091807 18 17 1.6 6.4 0.00 0.00 0.00 73 1011.4
20260507091607 18 17 1.6 6.4 0.00 0.00 0.00 73 1011.5
20260507091508 18 22 3.2 8.0 0.00 0.00 0.00 73 1011.5
20260507091406 18 92 1.6 8.0 0.00 0.00 0.00 73 1011.5
20260507091306 18 36 3.2 8.0 0.00 0.00 0.00 73 1011.4
20260507091206 18 40 3.2 8.0 0.00 0.00 0.00 73 1011.4
20260507090907 18 40 3.2 9.7 0.00 0.00 0.00 73 1011.3
20260507090807 18 46 3.2 9.7 0.00 0.00 0.00 73 1011.4
20260507090707 18 31 3.2 9.7 0.00 0.00 0.00 73 1011.4
20260507090508 18 335 3.2 9.7 0.00 0.00 0.00 73 1011.4
20260507090406 18 303 4.8 9.7 0.00 0.00 0.00 73 1011.3
20260507090206 18 60 3.2 12.9 0.00 0.00 0.00 73 1011.2
20260507090108 18 48 3.2 12.9 0.00 0.00 0.00 73 1011.3
20260507085906 18 347 4.8 12.9 0.00 0.00 0.00 73 1011.2
20260507085707 18 276 4.8 12.9 0.00 0.00 0.00 73 1011.3
20260507085609 18 295 4.8 16.1 0.00 0.00 0.00 73 1011.4
20260507085509 18 330 4.8 16.1 0.00 0.00 0.00 73 1011.3
20260507085406 17 16 4.8 16.1 0.00 0.00 0.00 73 1011.3
20260507085307 17 65 4.8 16.1 0.00 0.00 0.00 73 1011.3
20260507085211 17 53 4.8 16.1 0.00 0.00 0.00 73 1011.3
20260507085105 17 4 4.8 16.1 0.00 0.00 0.00 73 1011.2
20260507085009 17 341 4.8 16.1 0.00 0.00 0.00 72 1011.2
20260507084905 17 249 3.2 16.1 0.00 0.00 0.00 72 1011.3
20260507084806 17 288 3.2 16.1 0.00 0.00 0.00 72 1011.4
20260507084707 17 302 3.2 9.7 0.00 0.00 0.00 72 1011.4
20260507084605 17 317 4.8 9.7 0.00 0.00 0.00 72 1011.3
20260507084508 17 41 4.8 9.7 0.00 0.00 0.00 72 1011.3
20260507084407 17 266 4.8 12.9 0.00 0.00 0.00 72 1011.4
20260507084106 17 291 4.8 14.5 0.00 0.00 0.00 72 1011.3
20260507084009 17 348 6.4 14.5 0.00 0.00 0.00 72 1011.2
20260507083908 17 295 6.4 14.5 0.00 0.00 0.00 72 1011.2
20260507083808 17 296 6.4 16.1 0.00 0.00 0.00 72 1011.2
20260507083707 17 285 6.4 16.1 0.00 0.00 0.00 72 1011.2
20260507083608 17 278 6.4 16.1 0.00 0.00 0.00 72 1011.2
20260507083508 17 297 6.4 16.1 0.00 0.00 0.00 72 1011.2
20260507083407 17 261 6.4 16.1 0.00 0.00 0.00 72 1011.2
20260507083305 17 335 6.4 16.1 0.00 0.00 0.00 72 1011.2
20260507083206 17 247 6.4 16.1 0.00 0.00 0.00 72 1011.2
20260507083106 17 325 6.4 16.1 0.00 0.00 0.00 72 1011.2
20260507083007 17 220 6.4 16.1 0.00 0.00 0.00 72 1011.3
20260507082905 17 317 4.8 14.5 0.00 0.00 0.00 71 1011.2
20260507082806 17 314 4.8 14.5 0.00 0.00 0.00 71 1011.2
20260507082706 17 321 6.4 14.5 0.00 0.00 0.00 71 1011.3
20260507082606 17 281 6.4 16.1 0.00 0.00 0.00 71 1011.2
20260507082508 17 234 6.4 16.1 0.00 0.00 0.00 71 1011.2
20260507082406 17 316 6.4 16.1 0.00 0.00 0.00 71 1011.3
20260507082306 17 187 6.4 16.1 0.00 0.00 0.00 71 1011.3
20260507082207 17 238 6.4 16.1 0.00 0.00 0.00 71 1011.3
20260507082105 17 316 6.4 16.1 0.00 0.00 0.00 71 1011.3
20260507082007 17 312 6.4 16.1 0.00 0.00 0.00 71 1011.2
20260507081809 17 276 8.0 16.1 0.00 0.00 0.00 71 1011.2
20260507081607 17 293 6.4 17.7 0.00 0.00 0.00 71 1011.2
20260507081507 16 258 6.4 17.7 0.00 0.00 0.00 71 1011.2
20260507081405 16 339 6.4 17.7 0.00 0.00 0.00 71 1011.2
20260507081306 17 357 6.4 17.7 0.00 0.00 0.00 71 1011.2
20260507081206 17 229 6.4 17.7 0.00 0.00 0.00 71 1011.2
20260507081105 16 269 6.4 17.7 0.00 0.00 0.00 71 1011.2
20260507081007 16 256 6.4 17.7 0.00 0.00 0.00 71 1011.2
20260507080907 16 277 6.4 17.7 0.00 0.00 0.00 71 1011.3
20260507080805 16 264 6.4 17.7 0.00 0.00 0.00 71 1011.2
20260507080707 16 358 6.4 17.7 0.00 0.00 0.00 71 1011.3
20260507080605 16 229 8.0 17.7 0.00 0.00 0.00 71 1011.3
20260507080507 16 293 8.0 17.7 0.00 0.00 0.00 71 1011.2
20260507080406 16 267 8.0 17.7 0.00 0.00 0.00 71 1011.3
20260507080308 16 303 8.0 17.7 0.00 0.00 0.00 71 1011.2
20260507080207 16 251 8.0 17.7 0.00 0.00 0.00 71 1011.2
20260507080107 16 320 8.0 17.7 0.00 0.00 0.00 71 1011.3
20260507080014 16 7 6.4 17.7 0.00 0.00 0.00 71 1011.2
20260507075905 16 308 6.4 16.1 0.00 0.00 0.00 71 1011.1
20260507075805 16 335 6.4 16.1 0.00 0.00 0.00 71 1011.2
20260507075705 16 273 4.8 14.5 0.00 0.00 0.00 71 1011.2
20260507075606 16 289 4.8 14.5 0.00 0.00 0.00 71 1011.2
20260507075508 16 293 4.8 14.5 0.00 0.00 0.00 71 1011.2
20260507075407 16 303 4.8 14.5 0.00 0.00 0.00 71 1011.2
20260507075307 16 296 4.8 16.1 0.00 0.00 0.00 71 1011.2
20260507075205 16 229 4.8 16.1 0.00 0.00 0.00 71 1011.3
20260507075106 16 215 4.8 16.1 0.00 0.00 0.00 71 1011.3
20260507075009 16 321 4.8 16.1 0.00 0.00 0.00 71 1011.3
20260507074906 16 310 4.8 16.1 0.00 0.00 0.00 71 1011.3
20260507074707 16 335 4.8 16.1 0.00 0.00 0.00 71 1011.4
20260507074607 16 258 4.8 16.1 0.00 0.00 0.00 70 1011.4
20260507074405 16 330 4.8 14.5 0.00 0.00 0.00 71 1011.3
20260507074306 16 210 4.8 9.7 0.00 0.00 0.00 71 1011.3
20260507074207 16 186 4.8 9.7 0.00 0.00 0.00 71 1011.3
20260507074106 16 320 4.8 8.0 0.00 0.00 0.00 71 1011.3
20260507074009 16 262 4.8 9.7 0.00 0.00 0.00 71 1011.3
20260507073906 16 255 4.8 12.9 0.00 0.00 0.00 71 1011.3
20260507073807 16 297 6.4 16.1 0.00 0.00 0.00 71 1011.4
20260507073706 16 299 4.8 16.1 0.00 0.00 0.00 71 1011.3
20260507073607 16 298 4.8 16.1 0.00 0.00 0.00 71 1011.3
20260507073509 16 238 4.8 16.1 0.00 0.00 0.00 71 1011.3
20260507073407 16 238 4.8 16.1 0.00 0.00 0.00 71 1011.3
20260507073306 16 201 4.8 16.1 0.00 0.00 0.00 71 1011.3
20260507073107 16 330 4.8 16.1 0.00 0.00 0.00 72 1011.2
20260507073007 16 325 4.8 16.1 0.00 0.00 0.00 72 1011.3
20260507072907 16 306 4.8 16.1 0.00 0.00 0.00 72 1011.3
20260507072806 16 264 3.2 9.7 0.00 0.00 0.00 73 1011.2
20260507072706 16 325 3.2 9.7 0.00 0.00 0.00 73 1011.3
20260507072606 16 247 3.2 9.7 0.00 0.00 0.00 73 1011.2
20260507072508 16 318 3.2 9.7 0.00 0.00 0.00 73 1011.2
20260507072405 16 262 3.2 9.7 0.00 0.00 0.00 73 1011.2
20260507072308 16 247 3.2 9.7 0.00 0.00 0.00 73 1011.2
20260507072206 16 228 3.2 9.7 0.00 0.00 0.00 74 1011.2
20260507072107 16 358 3.2 9.7 0.00 0.00 0.00 74 1011.2
20260507072007 16 216 3.2 9.7 0.00 0.00 0.00 74 1011.2
20260507071907 16 348 3.2 9.7 0.00 0.00 0.00 74 1011.2
20260507071808 16 245 3.2 9.7 0.00 0.00 0.00 74 1011.2
20260507071708 16 285 3.2 9.7 0.00 0.00 0.00 74 1011.2
20260507071509 16 302 3.2 9.7 0.00 0.00 0.00 75 1011.2
20260507071405 16 264 3.2 8.0 0.00 0.00 0.00 75 1011.2
20260507071306 16 345 3.2 8.0 0.00 0.00 0.00 75 1011.2
20260507071106 15 320 3.2 8.0 0.00 0.00 0.00 75 1011.2
20260507071008 15 321 3.2 8.0 0.00 0.00 0.00 75 1011.1
20260507070906 15 281 3.2 8.0 0.00 0.00 0.00 75 1011.1